Wetterdaten: Montag, 30.10.2017
Datum Zeit Temp. Aussen Temp. o. S. +5cm Feuchte Auss BlattFeu 1 Luftdruck Regen Sonnenschein Regendauer Solar Windben Empfang
30.10.2017 00:00 6,1 C 5,6 C 4,4 C 91 % 1 lf 1021,1 hPa 0,0 l/m 0 min 0 min 0 W/m 20,9 km/h (4 Bft) 95,74 %
30.10.2017 00:02 6,1 C 5,6 C 4,4 C 91 % 1 lf 1021,1 hPa 0,0 l/m 0 min 0 min 0 W/m 12,6 km/h (3 Bft) 97,37 %
30.10.2017 00:04 6,1 C 5,6 C 4,4 C 91 % 1 lf 1021,1 hPa 0,0 l/m 0 min 0 min 0 W/m 12,6 km/h (3 Bft) 95,65 %
30.10.2017 00:08 6,1 C 5,6 C 4,4 C 92 % 1 lf 1021,1 hPa 0,0 l/m 0 min 0 min 0 W/m 16,7 km/h (3 Bft) 95,74 %
30.10.2017 00:10 6,1 C 5,6 C 4,4 C 92 % 1 lf 1021,2 hPa 0,0 l/m 0 min 0 min 0 W/m 18,8 km/h (3 Bft) 95,74 %
30.10.2017 00:12 6,1 C 5,6 C 4,4 C 92 % 1 lf 1021,2 hPa 0,0 l/m 0 min 0 min 0 W/m 12,6 km/h (3 Bft) 91,49 %
30.10.2017 00:14 6,1 C 5,6 C 4,4 C 92 % 1 lf 1021,2 hPa 0,0 l/m 0 min 0 min 0 W/m 18,8 km/h (3 Bft) 95,65 %
30.10.2017 00:16 6,1 C 5,6 C 4,4 C 92 % 1 lf 1021,2 hPa 0,0 l/m 0 min 0 min 0 W/m 16,7 km/h (3 Bft) 93,62 %
30.10.2017 00:18 6,1 C 5,6 C 4,4 C 92 % 1 lf 1021,2 hPa 0,0 l/m 0 min 0 min 0 W/m 14,6 km/h (3 Bft) 93,62 %
30.10.2017 00:20 6,1 C 5,6 C 4,4 C 92 % 1 lf 1021,2 hPa 0,0 l/m 0 min 0 min 0 W/m 12,6 km/h (3 Bft) 95,74 %
30.10.2017 00:22 6,1 C 5,6 C 4,4 C 92 % 1 lf 1021,3 hPa 0,0 l/m 0 min 0 min 0 W/m 14,6 km/h (3 Bft) 95,74 %
30.10.2017 00:24 6,1 C 5,6 C 3,9 C 92 % 1 lf 1021,3 hPa 0,0 l/m 0 min 0 min 0 W/m 12,6 km/h (3 Bft) 95,74 %
30.10.2017 00:26 6,1 C 5,0 C 3,9 C 92 % 1 lf 1021,3 hPa 0,0 l/m 0 min 0 min 0 W/m 14,6 km/h (3 Bft) 95,65 %
30.10.2017 00:28 6,1 C 5,0 C 3,9 C 92 % 1 lf 1021,3 hPa 0,0 l/m 0 min 0 min 0 W/m 16,7 km/h (3 Bft) 97,87 %
30.10.2017 00:30 6,1 C 5,6 C 4,4 C 92 % 1 lf 1021,3 hPa 0,0 l/m 0 min 0 min 0 W/m 12,6 km/h (3 Bft) 97,87 %
30.10.2017 00:32 6,1 C 5,6 C 4,4 C 92 % 1 lf 1021,3 hPa 0,0 l/m 0 min 0 min 0 W/m 12,6 km/h (3 Bft) 97,87 %
30.10.2017 00:34 6,1 C 5,6 C 4,4 C 92 % 1 lf 1021,4 hPa 0,0 l/m 0 min 0 min 0 W/m 14,6 km/h (3 Bft) 97,87 %
30.10.2017 00:36 6,1 C 5,6 C 4,4 C 92 % 1 lf 1021,4 hPa 0,0 l/m 0 min 0 min 0 W/m 16,7 km/h (3 Bft) 97,87 %
30.10.2017 00:38 6,1 C 5,6 C 5,0 C 92 % 1 lf 1021,4 hPa 0,0 l/m 0 min 0 min 0 W/m 14,6 km/h (3 Bft) 100,00 %
30.10.2017 00:40 6,1 C 5,6 C 5,0 C 92 % 1 lf 1021,4 hPa 0,0 l/m 0 min 0 min 0 W/m 14,6 km/h (3 Bft) 100,00 %
30.10.2017 00:42 6,1 C 5,6 C 5,0 C 92 % 1 lf 1021,4 hPa 0,0 l/m 0 min 0 min 0 W/m 10,5 km/h (2 Bft) 100,00 %
30.10.2017 00:44 6,1 C 5,6 C 5,0 C 92 % 1 lf 1021,4 hPa 0,0 l/m 0 min 0 min 0 W/m 12,6 km/h (3 Bft) 100,00 %
30.10.2017 00:46 6,1 C 5,6 C 5,0 C 92 % 1 lf 1021,5 hPa 0,0 l/m 0 min 0 min 0 W/m 14,6 km/h (3 Bft) 95,74 %
30.10.2017 00:48 6,1 C 5,6 C 5,0 C 92 % 1 lf 1021,4 hPa 0,0 l/m 0 min 0 min 0 W/m 16,7 km/h (3 Bft) 97,87 %
30.10.2017 00:50 6,1 C 6,1 C 5,0 C 92 % 1 lf 1021,5 hPa 0,0 l/m 0 min 0 min 0 W/m 16,7 km/h (3 Bft) 97,83 %
30.10.2017 00:52 6,1 C 6,1 C 5,0 C 92 % 1 lf 1021,4 hPa 0,0 l/m 0 min 0 min 0 W/m 14,6 km/h (3 Bft) 97,62 %
30.10.2017 00:54 6,2 C 6,1 C 5,0 C 92 % 1 lf 1021,4 hPa 0,0 l/m 0 min 0 min 0 W/m 8,4 km/h (2 Bft) 96,00 %
30.10.2017 00:56 6,2 C 6,1 C 5,0 C 92 % 1 lf 1021,5 hPa 0,0 l/m 0 min 0 min 0 W/m 14,6 km/h (3 Bft) 97,87 %
30.10.2017 00:58 6,2 C 6,1 C 5,0 C 92 % 1 lf 1021,5 hPa 0,0 l/m 0 min 0 min 0 W/m 18,8 km/h (3 Bft) 95,92 %
30.10.2017 01:00 6,2 C 6,1 C 5,0 C 92 % 1 lf 1021,6 hPa 0,0 l/m 0 min 0 min 0 W/m 14,6 km/h (3 Bft) 95,74 %
30.10.2017 01:02 6,2 C 6,1 C 5,0 C 92 % 1 lf 1021,6 hPa 0,0 l/m 0 min 0 min 0 W/m 10,5 km/h (2 Bft) 97,83 %
30.10.2017 01:04 6,2 C 6,1 C 5,0 C 93 % 1 lf 1021,5 hPa 0,0 l/m 0 min 0 min 0 W/m 12,6 km/h (3 Bft) 97,87 %
30.10.2017 01:06 6,2 C 6,1 C 5,0 C 93 % 1 lf 1021,6 hPa 0,0 l/m 0 min 0 min 0 W/m 12,6 km/h (3 Bft) 95,74 %
30.10.2017 01:08 6,3 C 6,1 C 5,0 C 93 % 1 lf 1021,5 hPa 0,0 l/m 0 min 0 min 0 W/m 16,7 km/h (3 Bft) 95,24 %
30.10.2017 01:10 6,3 C 6,1 C 5,0 C 93 % 1 lf 1021,5 hPa 0,0 l/m 0 min 0 min 0 W/m 12,6 km/h (3 Bft) 97,87 %
30.10.2017 01:12 6,3 C 6,1 C 5,0 C 93 % 1 lf 1021,5 hPa 0,0 l/m 0 min 0 min 0 W/m 16,7 km/h (3 Bft) 97,87 %
30.10.2017 01:14 6,3 C 6,1 C 5,0 C 93 % 1 lf 1021,6 hPa 0,0 l/m 0 min 0 min 0 W/m 6,3 km/h (2 Bft) 100,00 %
30.10.2017 01:16 6,3 C 6,1 C 5,0 C 93 % 1 lf 1021,6 hPa 0,0 l/m 0 min 0 min 0 W/m 8,4 km/h (2 Bft) 97,87 %
30.10.2017 01:18 6,3 C 6,1 C 5,0 C 93 % 1 lf 1021,7 hPa 0,0 l/m 0 min 0 min 0 W/m 8,4 km/h (2 Bft) 97,83 %
30.10.2017 01:20 6,3 C 6,1 C 5,0 C 93 % 1 lf 1021,6 hPa 0,0 l/m 0 min 0 min 0 W/m 6,3 km/h (2 Bft) 100,00 %
30.10.2017 01:22 6,3 C 6,1 C 5,0 C 93 % 1 lf 1021,7 hPa 0,0 l/m 0 min 0 min 0 W/m 14,6 km/h (3 Bft) 100,00 %
30.10.2017 01:24 6,3 C 6,1 C 5,0 C 93 % 1 lf 1021,7 hPa 0,0 l/m 0 min 0 min 0 W/m 10,5 km/h (2 Bft) 100,00 %
30.10.2017 01:26 6,3 C 6,1 C 5,0 C 93 % 1 lf 1021,7 hPa 0,0 l/m 0 min 0 min 0 W/m 10,5 km/h (2 Bft) 100,00 %
30.10.2017 01:28 6,3 C 6,1 C 5,0 C 93 % 1 lf 1021,7 hPa 0,0 l/m 0 min 0 min 0 W/m 10,5 km/h (2 Bft) 100,00 %
30.10.2017 01:30 6,3 C 6,1 C 5,0 C 93 % 1 lf 1021,8 hPa 0,0 l/m 0 min 0 min 0 W/m 14,6 km/h (3 Bft) 100,00 %
30.10.2017 01:32 6,3 C 6,1 C 5,0 C 93 % 1 lf 1021,8 hPa 0,0 l/m 0 min 0 min 0 W/m 8,4 km/h (2 Bft) 97,87 %
30.10.2017 01:34 6,3 C 6,1 C 5,0 C 93 % 1 lf 1021,8 hPa 0,0 l/m 0 min 0 min 0 W/m 8,4 km/h (2 Bft) 97,87 %
30.10.2017 01:36 6,3 C 6,1 C 5,0 C 93 % 1 lf 1021,7 hPa 0,0 l/m 0 min 0 min 0 W/m 12,6 km/h (3 Bft) 100,00 %
30.10.2017 01:38 6,3 C 6,1 C 5,0 C 93 % 1 lf 1021,8 hPa 0,0 l/m 0 min 0 min 0 W/m 14,6 km/h (3 Bft) 98,00 %
30.10.2017 01:40 6,3 C 6,1 C 5,0 C 93 % 1 lf 1021,8 hPa 0,0 l/m 0 min 0 min 0 W/m 8,4 km/h (2 Bft) 100,00 %
30.10.2017 01:42 6,3 C 6,1 C 5,0 C 92 % 1 lf 1021,8 hPa 0,0 l/m 0 min 0 min 0 W/m 8,4 km/h (2 Bft) 97,87 %
30.10.2017 01:44 6,3 C 6,1 C 5,0 C 92 % 1 lf 1021,7 hPa 0,0 l/m 0 min 0 min 0 W/m 10,5 km/h (2 Bft) 97,96 %
30.10.2017 01:46 6,3 C 6,1 C 5,0 C 92 % 1 lf 1021,7 hPa 0,0 l/m 0 min 0 min 0 W/m 12,6 km/h (3 Bft) 97,87 %
30.10.2017 01:48 6,3 C 6,1 C 5,0 C 92 % 1 lf 1021,7 hPa 0,0 l/m 0 min 0 min 0 W/m 16,7 km/h (3 Bft) 97,83 %
30.10.2017 01:50 6,4 C 6,1 C 5,0 C 92 % 1 lf 1021,8 hPa 0,0 l/m 0 min 0 min 0 W/m 10,5 km/h (2 Bft) 95,74 %
30.10.2017 01:52 6,4 C 6,1 C 5,0 C 92 % 1 lf 1021,8 hPa 0,0 l/m 0 min 0 min 0 W/m 10,5 km/h (2 Bft) 95,74 %
30.10.2017 01:54 6,3 C 6,1 C 5,0 C 92 % 1 lf 1021,8 hPa 0,0 l/m 0 min 0 min 0 W/m 10,5 km/h (2 Bft) 95,74 %
30.10.2017 01:56 6,4 C 6,1 C 5,0 C 92 % 1 lf 1021,8 hPa 0,0 l/m 0 min 0 min 0 W/m 10,5 km/h (2 Bft) 95,74 %
30.10.2017 01:58 6,4 C 6,1 C 4,4 C 92 % 1 lf 1021,8 hPa 0,0 l/m 0 min 0 min 0 W/m 10,5 km/h (2 Bft) 95,74 %
30.10.2017 02:00 6,4 C 5,6 C 4,4 C 92 % 1 lf 1021,8 hPa 0,0 l/m 0 min 0 min 0 W/m 8,4 km/h (2 Bft) 97,83 %
30.10.2017 02:02 6,3 C 5,6 C 4,4 C 92 % 1 lf 1021,8 hPa 0,0 l/m 0 min 0 min 0 W/m 10,5 km/h (2 Bft) 97,87 %
30.10.2017 02:04 6,3 C 5,6 C 4,4 C 92 % 1 lf 1021,8 hPa 0,0 l/m 0 min 0 min 0 W/m 14,6 km/h (3 Bft) 97,87 %
30.10.2017 02:06 6,3 C 5,6 C 3,9 C 92 % 1 lf 1021,8 hPa 0,0 l/m 0 min 0 min 0 W/m 10,5 km/h (2 Bft) 97,62 %
30.10.2017 02:08 6,3 C 5,6 C 3,9 C 92 % 1 lf 1021,8 hPa 0,0 l/m 0 min 0 min 0 W/m 8,4 km/h (2 Bft) 98,00 %
30.10.2017 02:10 6,3 C 5,6 C 3,9 C 92 % 1 lf 1021,8 hPa 0,0 l/m 0 min 0 min 0 W/m 8,4 km/h (2 Bft) 95,65 %
30.10.2017 02:12 6,3 C 5,0 C 3,9 C 92 % 1 lf 1021,8 hPa 0,0 l/m 0 min 0 min 0 W/m 8,4 km/h (2 Bft) 91,49 %
30.10.2017 02:14 6,2 C 5,0 C 3,9 C 92 % 1 lf 1021,9 hPa 0,0 l/m 0 min 0 min 0 W/m 10,5 km/h (2 Bft) 93,88 %
30.10.2017 02:16 6,2 C 5,0 C 3,3 C 92 % 1 lf 1021,9 hPa 0,0 l/m 0 min 0 min 0 W/m 10,5 km/h (2 Bft) 97,87 %
30.10.2017 02:18 6,2 C 5,0 C 3,3 C 92 % 1 lf 1021,9 hPa 0,0 l/m 0 min 0 min 0 W/m 8,4 km/h (2 Bft) 97,87 %
30.10.2017 02:20 6,2 C 5,0 C 3,3 C 92 % 1 lf 1021,9 hPa 0,0 l/m 0 min 0 min 0 W/m 8,4 km/h (2 Bft) 97,87 %
30.10.2017 02:22 6,2 C 5,0 C 3,3 C 92 % 1 lf 1021,9 hPa 0,0 l/m 0 min 0 min 0 W/m 6,3 km/h (2 Bft) 93,62 %
30.10.2017 02:24 6,1 C 5,0 C 3,3 C 92 % 1 lf 1021,9 hPa 0,0 l/m 0 min 0 min 0 W/m 8,4 km/h (2 Bft) 97,56 %
30.10.2017 02:26 6,1 C 5,0 C 3,3 C 92 % 1 lf 1021,9 hPa 0,0 l/m 0 min 0 min 0 W/m 10,5 km/h (2 Bft) 97,87 %
30.10.2017 02:28 6,1 C 5,0 C 3,3 C 91 % 1 lf 1021,9 hPa 0,0 l/m 0 min 0 min 0 W/m 8,4 km/h (2 Bft) 95,74 %
30.10.2017 02:30 6,1 C 4,4 C 3,3 C 91 % 1 lf 1021,9 hPa 0,0 l/m 0 min 0 min 0 W/m 8,4 km/h (2 Bft) 93,62 %
30.10.2017 02:32 6,0 C 4,4 C 3,3 C 91 % 1 lf 1022,0 hPa 0,0 l/m 0 min 0 min 0 W/m 10,5 km/h (2 Bft) 93,62 %
30.10.2017 02:34 5,9 C 4,4 C 3,3 C 91 % 1 lf 1022,0 hPa 0,0 l/m 0 min 0 min 0 W/m 10,5 km/h (2 Bft) 93,62 %
30.10.2017 02:36 5,9 C 4,4 C 3,3 C 91 % 1 lf 1022,0 hPa 0,0 l/m 0 min 0 min 0 W/m 6,3 km/h (2 Bft) 97,83 %
30.10.2017 02:38 5,9 C 4,4 C 2,8 C 91 % 1 lf 1021,9 hPa 0,0 l/m 0 min 0 min 0 W/m 4,2 km/h (1 Bft) 93,62 %
30.10.2017 02:40 5,9 C 4,4 C 2,8 C 91 % 1 lf 1022,0 hPa 0,0 l/m 0 min 0 min 0 W/m 6,3 km/h (2 Bft) 95,74 %
30.10.2017 02:42 5,8 C 4,4 C 2,8 C 91 % 1 lf 1021,9 hPa 0,0 l/m 0 min 0 min 0 W/m 10,5 km/h (2 Bft) 95,74 %
30.10.2017 02:44 5,8 C 4,4 C 3,3 C 91 % 1 lf 1021,9 hPa 0,0 l/m 0 min 0 min 0 W/m 14,6 km/h (3 Bft) 95,74 %
30.10.2017 02:46 5,7 C 4,4 C 3,3 C 91 % 1 lf 1022,0 hPa 0,0 l/m 0 min 0 min 0 W/m 12,6 km/h (3 Bft) 95,65 %
30.10.2017 02:48 5,7 C 4,4 C 3,3 C 91 % 1 lf 1022,0 hPa 0,0 l/m 0 min 0 min 0 W/m 12,6 km/h (3 Bft) 95,74 %
30.10.2017 02:50 5,7 C 4,4 C 3,3 C 91 % 1 lf 1022,0 hPa 0,0 l/m 0 min 0 min 0 W/m 10,5 km/h (2 Bft) 96,61 %
30.10.2017 02:52 5,7 C 4,4 C 3,3 C 91 % 1 lf 1022,0 hPa 0,0 l/m 0 min 0 min 0 W/m 10,5 km/h (2 Bft) 94,29 %
30.10.2017 02:54 5,6 C 4,4 C 3,3 C 91 % 1 lf 1022,0 hPa 0,0 l/m 0 min 0 min 0 W/m 8,4 km/h (2 Bft) 95,74 %
30.10.2017 02:56 5,6 C 4,4 C 2,8 C 91 % 1 lf 1022,0 hPa 0,0 l/m 0 min 0 min 0 W/m 14,6 km/h (3 Bft) 95,74 %
30.10.2017 02:58 5,6 C 4,4 C 3,3 C 91 % 1 lf 1022,0 hPa 0,0 l/m 0 min 0 min 0 W/m 8,4 km/h (2 Bft) 95,74 %
30.10.2017 03:00 5,6 C 4,4 C 3,3 C 91 % 1 lf 1022,1 hPa 0,0 l/m 0 min 0 min 0 W/m 10,5 km/h (2 Bft) 95,65 %
30.10.2017 03:02 5,5 C 4,4 C 3,3 C 91 % 1 lf 1022,1 hPa 0,0 l/m 0 min 0 min 0 W/m 6,3 km/h (2 Bft) 91,49 %
30.10.2017 03:04 5,5 C 4,4 C 3,3 C 91 % 1 lf 1022,1 hPa 0,0 l/m 0 min 0 min 0 W/m 8,4 km/h (2 Bft) 96,00 %
30.10.2017 03:06 5,5 C 4,4 C 3,3 C 91 % 2 lf 1022,1 hPa 0,0 l/m 0 min 0 min 0 W/m 10,5 km/h (2 Bft) 97,87 %
30.10.2017 03:08 5,4 C 4,4 C 3,3 C 91 % 2 lf 1022,1 hPa 0,0 l/m 0 min 0 min 0 W/m 12,6 km/h (3 Bft) 97,96 %
30.10.2017 03:10 5,4 C 4,4 C 2,8 C 91 % 2 lf 1022,0 hPa 0,0 l/m 0 min 0 min 0 W/m 10,5 km/h (2 Bft) 95,65 %
30.10.2017 03:12 5,4 C 4,4 C 3,3 C 91 % 2 lf 1021,9 hPa 0,0 l/m 0 min 0 min 0 W/m 12,6 km/h (3 Bft) 100,00 %
30.10.2017 03:14 5,4 C 4,4 C 3,3 C 91 % 2 lf 1021,9 hPa 0,0 l/m 0 min 0 min 0 W/m 14,6 km/h (3 Bft) 100,00 %
30.10.2017 03:16 5,4 C 4,4 C 3,3 C 91 % 2 lf 1021,9 hPa 0,0 l/m 0 min 0 min 0 W/m 14,6 km/h (3 Bft) 100,00 %
30.10.2017 03:18 5,4 C 4,4 C 3,3 C 91 % 2 lf 1022,0 hPa 0,0 l/m 0 min 0 min 0 W/m 8,4 km/h (2 Bft) 100,00 %
30.10.2017 03:20 5,4 C 4,4 C 3,3 C 91 % 2 lf 1022,1 hPa 0,0 l/m 0 min 0 min 0 W/m 10,5 km/h (2 Bft) 100,00 %
30.10.2017 03:22 5,4 C 4,4 C 3,3 C 91 % 2 lf 1022,1 hPa 0,0 l/m 0 min 0 min 0 W/m 12,6 km/h (3 Bft) 97,87 %
30.10.2017 03:24 5,4 C 4,4 C 3,3 C 91 % 2 lf 1022,0 hPa 0,0 l/m 0 min 0 min 0 W/m 10,5 km/h (2 Bft) 97,87 %
30.10.2017 03:26 5,4 C 4,4 C 3,3 C 91 % 2 lf 1022,0 hPa 0,0 l/m 0 min 0 min 0 W/m 10,5 km/h (2 Bft) 97,87 %
30.10.2017 03:28 5,4 C 4,4 C 3,3 C 91 % 2 lf 1022,0 hPa 0,0 l/m 0 min 0 min 0 W/m 10,5 km/h (2 Bft) 100,00 %
30.10.2017 03:30 5,3 C 4,4 C 3,3 C 92 % 2 lf 1022,0 hPa 0,0 l/m 0 min 0 min 0 W/m 10,5 km/h (2 Bft) 97,87 %
30.10.2017 03:32 5,3 C 4,4 C 3,3 C 92 % 2 lf 1022,0 hPa 0,0 l/m 0 min 0 min 0 W/m 12,6 km/h (3 Bft) 100,00 %
30.10.2017 03:34 5,3 C 4,4 C 3,3 C 92 % 2 lf 1022,1 hPa 0,0 l/m 0 min 0 min 0 W/m 12,6 km/h (3 Bft) 97,83 %
30.10.2017 03:36 5,3 C 4,4 C 3,3 C 92 % 2 lf 1022,1 hPa 0,0 l/m 0 min 0 min 0 W/m 14,6 km/h (3 Bft) 97,87 %
30.10.2017 03:38 5,3 C 4,4 C 3,3 C 92 % 2 lf 1022,1 hPa 0,0 l/m 0 min 0 min 0 W/m 10,5 km/h (2 Bft) 100,00 %
30.10.2017 03:40 5,3 C 4,4 C 3,3 C 92 % 2 lf 1022,1 hPa 0,0 l/m 0 min 0 min 0 W/m 8,4 km/h (2 Bft) 95,74 %
30.10.2017 03:42 5,3 C 4,4 C 3,3 C 92 % 2 lf 1022,2 hPa 0,0 l/m 0 min 0 min 0 W/m 16,7 km/h (3 Bft) 95,74 %
30.10.2017 03:44 5,3 C 4,4 C 3,3 C 92 % 1 lf 1022,2 hPa 0,0 l/m 0 min 0 min 0 W/m 10,5 km/h (2 Bft) 97,83 %
30.10.2017 03:46 5,3 C 4,4 C 3,3 C 92 % 1 lf 1022,2 hPa 0,0 l/m 0 min 0 min 0 W/m 12,6 km/h (3 Bft) 97,87 %
30.10.2017 03:48 5,3 C 4,4 C 3,9 C 92 % 1 lf 1022,2 hPa 0,0 l/m 0 min 0 min 0 W/m 8,4 km/h (2 Bft) 97,87 %
30.10.2017 03:50 5,3 C 4,4 C 3,9 C 92 % 1 lf 1022,2 hPa 0,0 l/m 0 min 0 min 0 W/m 8,4 km/h (2 Bft) 97,87 %
30.10.2017 03:52 5,3 C 5,0 C 3,9 C 92 % 1 lf 1022,2 hPa 0,0 l/m 0 min 0 min 0 W/m 10,5 km/h (2 Bft) 95,24 %
30.10.2017 03:54 5,3 C 5,0 C 3,9 C 92 % 1 lf 1022,2 hPa 0,0 l/m 0 min 0 min 0 W/m 6,3 km/h (2 Bft) 97,87 %
30.10.2017 03:56 5,3 C 5,0 C 3,9 C 92 % 1 lf 1022,2 hPa 0,0 l/m 0 min 0 min 0 W/m 8,4 km/h (2 Bft) 97,87 %
30.10.2017 03:58 5,3 C 5,0 C 3,9 C 92 % 1 lf 1022,3 hPa 0,0 l/m 0 min 0 min 0 W/m 12,6 km/h (3 Bft) 97,83 %
30.10.2017 04:00 5,3 C 5,0 C 3,9 C 92 % 1 lf 1022,4 hPa 0,0 l/m 0 min 0 min 0 W/m 8,4 km/h (2 Bft) 97,87 %
30.10.2017 04:02 5,3 C 5,0 C 3,9 C 92 % 1 lf 1022,4 hPa 0,0 l/m 0 min 0 min 0 W/m 12,6 km/h (3 Bft) 100,00 %
30.10.2017 04:04 5,3 C 5,0 C 3,9 C 92 % 1 lf 1022,4 hPa 0,0 l/m 0 min 0 min 0 W/m 8,4 km/h (2 Bft) 97,87 %
30.10.2017 04:06 5,3 C 4,4 C 3,9 C 92 % 1 lf 1022,5 hPa 0,0 l/m 0 min 0 min 0 W/m 8,4 km/h (2 Bft) 96,00 %
30.10.2017 04:08 5,3 C 4,4 C 3,3 C 93 % 1 lf 1022,5 hPa 0,0 l/m 0 min 0 min 0 W/m 10,5 km/h (2 Bft) 95,65 %
30.10.2017 04:10 5,3 C 4,4 C 3,3 C 93 % 1 lf 1022,5 hPa 0,0 l/m 0 min 0 min 0 W/m 6,3 km/h (2 Bft) 97,87 %
30.10.2017 04:12 5,2 C 4,4 C 3,3 C 93 % 1 lf 1022,4 hPa 0,0 l/m 0 min 0 min 0 W/m 10,5 km/h (2 Bft) 97,87 %
30.10.2017 04:14 5,2 C 4,4 C 3,3 C 93 % 1 lf 1022,5 hPa 0,0 l/m 0 min 0 min 0 W/m 14,6 km/h (3 Bft) 97,87 %
30.10.2017 04:16 5,2 C 4,4 C 3,9 C 93 % 1 lf 1022,5 hPa 0,0 l/m 0 min 0 min 0 W/m 12,6 km/h (3 Bft) 97,87 %
30.10.2017 04:18 5,2 C 4,4 C 3,9 C 93 % 1 lf 1022,5 hPa 0,0 l/m 0 min 0 min 0 W/m 6,3 km/h (2 Bft) 97,83 %
30.10.2017 04:20 5,2 C 5,0 C 3,9 C 93 % 1 lf 1022,5 hPa 0,0 l/m 0 min 0 min 0 W/m 8,4 km/h (2 Bft) 93,62 %
30.10.2017 04:22 5,2 C 5,0 C 3,9 C 93 % 1 lf 1022,5 hPa 0,0 l/m 0 min 0 min 0 W/m 8,4 km/h (2 Bft) 95,74 %
30.10.2017 04:24 5,2 C 5,0 C 3,9 C 93 % 1 lf 1022,5 hPa 0,0 l/m 0 min 0 min 0 W/m 8,4 km/h (2 Bft) 95,92 %
30.10.2017 04:26 5,2 C 5,0 C 3,9 C 93 % 1 lf 1022,6 hPa 0,0 l/m 0 min 0 min 0 W/m 8,4 km/h (2 Bft) 95,74 %
30.10.2017 04:28 5,2 C 5,0 C 4,4 C 93 % 1 lf 1022,6 hPa 0,0 l/m 0 min 0 min 0 W/m 10,5 km/h (2 Bft) 93,62 %
30.10.2017 04:30 5,2 C 5,0 C 4,4 C 93 % 1 lf 1022,6 hPa 0,0 l/m 0 min 0 min 0 W/m 8,4 km/h (2 Bft) 95,65 %
30.10.2017 04:32 5,3 C 5,0 C 4,4 C 93 % 1 lf 1022,6 hPa 0,0 l/m 0 min 0 min 0 W/m 8,4 km/h (2 Bft) 95,74 %
30.10.2017 04:34 5,3 C 5,0 C 4,4 C 93 % 1 lf 1022,6 hPa 0,0 l/m 0 min 0 min 0 W/m 10,5 km/h (2 Bft) 95,74 %
30.10.2017 04:36 5,3 C 5,0 C 4,4 C 93 % 1 lf 1022,6 hPa 0,0 l/m 0 min 0 min 0 W/m 8,4 km/h (2 Bft) 95,74 %
30.10.2017 04:38 5,3 C 5,6 C 4,4 C 93 % 1 lf 1022,6 hPa 0,0 l/m 0 min 0 min 0 W/m 12,6 km/h (3 Bft) 95,74 %
30.10.2017 04:40 5,3 C 5,6 C 4,4 C 93 % 1 lf 1022,7 hPa 0,0 l/m 0 min 0 min 0 W/m 10,5 km/h (2 Bft) 95,74 %
30.10.2017 04:42 5,3 C 5,0 C 4,4 C 93 % 1 lf 1022,7 hPa 0,0 l/m 0 min 0 min 0 W/m 8,4 km/h (2 Bft) 95,65 %
30.10.2017 04:44 5,3 C 5,6 C 4,4 C 93 % 1 lf 1022,7 hPa 0,0 l/m 0 min 0 min 0 W/m 8,4 km/h (2 Bft) 95,74 %
30.10.2017 04:46 5,3 C 5,6 C 4,4 C 93 % 1 lf 1022,7 hPa 0,0 l/m 0 min 0 min 0 W/m 10,5 km/h (2 Bft) 91,49 %
30.10.2017 04:48 5,4 C 5,6 C 4,4 C 93 % 1 lf 1022,7 hPa 0,0 l/m 0 min 0 min 0 W/m 8,4 km/h (2 Bft) 93,62 %
30.10.2017 04:50 5,4 C 5,6 C 4,4 C 93 % 1 lf 1022,7 hPa 0,0 l/m 0 min 0 min 0 W/m 8,4 km/h (2 Bft) 87,23 %
30.10.2017 04:52 5,4 C 5,6 C 4,4 C 93 % 1 lf 1022,7 hPa 0,0 l/m 0 min 0 min 0 W/m 10,5 km/h (2 Bft) 93,62 %
30.10.2017 04:54 5,4 C 5,6 C 4,4 C 93 % 1 lf 1022,7 hPa 0,0 l/m 0 min 0 min 0 W/m 12,6 km/h (3 Bft) 97,83 %
30.10.2017 04:56 5,4 C 5,6 C 4,4 C 93 % 1 lf 1022,7 hPa 0,0 l/m 0 min 0 min 0 W/m 12,6 km/h (3 Bft) 95,74 %
30.10.2017 04:58 5,4 C 5,6 C 4,4 C 93 % 1 lf 1022,8 hPa 0,0 l/m 0 min 0 min 0 W/m 12,6 km/h (3 Bft) 93,62 %
30.10.2017 05:00 5,4 C 5,6 C 4,4 C 93 % 1 lf 1022,8 hPa 0,0 l/m 0 min 0 min 0 W/m 10,5 km/h (2 Bft) 95,74 %
30.10.2017 05:02 5,5 C 5,6 C 4,4 C 93 % 1 lf 1022,9 hPa 0,0 l/m 0 min 0 min 0 W/m 12,6 km/h (3 Bft) 93,62 %
30.10.2017 05:04 5,5 C 5,6 C 4,4 C 93 % 1 lf 1022,9 hPa 0,0 l/m 0 min 0 min 0 W/m 8,4 km/h (2 Bft) 95,74 %
30.10.2017 05:06 5,5 C 5,6 C 4,4 C 93 % 1 lf 1022,9 hPa 0,0 l/m 0 min 0 min 0 W/m 12,6 km/h (3 Bft) 93,48 %
30.10.2017 05:08 5,5 C 5,6 C 4,4 C 93 % 1 lf 1023,0 hPa 0,0 l/m 0 min 0 min 0 W/m 8,4 km/h (2 Bft) 93,62 %
30.10.2017 05:10 5,5 C 5,0 C 3,9 C 93 % 1 lf 1023,0 hPa 0,0 l/m 0 min 0 min 0 W/m 10,5 km/h (2 Bft) 95,74 %
30.10.2017 05:12 5,5 C 5,0 C 3,9 C 93 % 1 lf 1023,0 hPa 0,0 l/m 0 min 0 min 0 W/m 10,5 km/h (2 Bft) 95,74 %
30.10.2017 05:14 5,5 C 5,0 C 3,9 C 93 % 1 lf 1023,0 hPa 0,0 l/m 0 min 0 min 0 W/m 10,5 km/h (2 Bft) 95,24 %
30.10.2017 05:16 5,5 C 5,0 C 3,9 C 93 % 1 lf 1023,0 hPa 0,0 l/m 0 min 0 min 0 W/m 12,6 km/h (3 Bft) 93,62 %
30.10.2017 05:18 5,5 C 5,0 C 3,9 C 93 % 1 lf 1023,1 hPa 0,0 l/m 0 min 0 min 0 W/m 12,6 km/h (3 Bft) 91,30 %
30.10.2017 05:20 5,5 C 5,0 C 3,3 C 93 % 1 lf 1023,0 hPa 0,0 l/m 0 min 0 min 0 W/m 14,6 km/h (3 Bft) 93,62 %
30.10.2017 05:22 5,5 C 4,4 C 3,3 C 93 % 1 lf 1023,1 hPa 0,0 l/m 0 min 0 min 0 W/m 8,4 km/h (2 Bft) 96,00 %
30.10.2017 05:24 5,4 C 4,4 C 3,3 C 93 % 1 lf 1023,2 hPa 0,0 l/m 0 min 0 min 0 W/m 12,6 km/h (3 Bft) 93,62 %
30.10.2017 05:26 5,4 C 4,4 C 3,3 C 93 % 1 lf 1023,2 hPa 0,0 l/m 0 min 0 min 0 W/m 12,6 km/h (3 Bft) 93,62 %
30.10.2017 05:28 5,4 C 4,4 C 3,3 C 93 % 1 lf 1023,3 hPa 0,0 l/m 0 min 0 min 0 W/m 10,5 km/h (2 Bft) 95,65 %
30.10.2017 05:30 5,4 C 4,4 C 3,3 C 93 % 1 lf 1023,3 hPa 0,0 l/m 0 min 0 min 0 W/m 8,4 km/h (2 Bft) 95,74 %
30.10.2017 05:32 5,4 C 4,4 C 3,3 C 93 % 1 lf 1023,3 hPa 0,0 l/m 0 min 0 min 0 W/m 10,5 km/h (2 Bft) 95,74 %
30.10.2017 05:34 5,4 C 4,4 C 3,3 C 93 % 1 lf 1023,3 hPa 0,0 l/m 0 min 0 min 0 W/m 12,6 km/h (3 Bft) 93,62 %
30.10.2017 05:35 5,4 C 4,4 C 3,3 C 93 % 1 lf 1023,3 hPa 0,0 l/m 0 min 0 min 0 W/m 12,6 km/h (3 Bft) 96,49 %
30.10.2017 05:40 5,3 C 4,4 C 3,3 C 93 % 1 lf 1023,4 hPa 0,0 l/m 0 min 0 min 0 W/m 10,5 km/h (2 Bft) 100,00 %
30.10.2017 05:42 5,3 C 4,4 C 3,3 C 93 % 1 lf 1023,3 hPa 0,0 l/m 0 min 0 min 0 W/m 8,4 km/h (2 Bft) 96,55 %
30.10.2017 05:44 5,3 C 4,4 C 3,3 C 93 % 1 lf 1023,3 hPa 0,0 l/m 0 min 0 min 0 W/m 12,6 km/h (3 Bft) 100,00 %
30.10.2017 05:46 5,3 C 4,4 C 3,3 C 93 % 1 lf 1023,3 hPa 0,0 l/m 0 min 0 min 0 W/m 6,3 km/h (2 Bft) 100,00 %
30.10.2017 05:48 5,3 C 4,4 C 3,3 C 93 % 1 lf 1023,3 hPa 0,0 l/m 0 min 0 min 0 W/m 6,3 km/h (2 Bft) 100,00 %
30.10.2017 05:50 5,2 C 4,4 C 3,3 C 93 % 1 lf 1023,4 hPa 0,0 l/m 0 min 0 min 0 W/m 14,6 km/h (3 Bft) 95,92 %
30.10.2017 05:52 5,2 C 4,4 C 3,3 C 93 % 1 lf 1023,3 hPa 0,0 l/m 0 min 0 min 0 W/m 14,6 km/h (3 Bft) 100,00 %
30.10.2017 05:54 5,2 C 4,4 C 3,3 C 93 % 1 lf 1023,4 hPa 0,0 l/m 0 min 0 min 0 W/m 10,5 km/h (2 Bft) 100,00 %
30.10.2017 05:56 5,2 C 4,4 C 3,3 C 93 % 1 lf 1023,4 hPa 0,0 l/m 0 min 0 min 0 W/m 10,5 km/h (2 Bft) 100,00 %
30.10.2017 05:58 5,2 C 4,4 C 2,8 C 93 % 1 lf 1023,4 hPa 0,0 l/m 0 min 0 min 0 W/m 8,4 km/h (2 Bft) 100,00 %
30.10.2017 06:00 5,2 C 3,9 C 2,8 C 93 % 2 lf 1023,4 hPa 0,0 l/m 0 min 0 min 0 W/m 12,6 km/h (3 Bft) 98,21 %
30.10.2017 06:02 5,2 C 3,9 C 2,8 C 93 % 2 lf 1023,5 hPa 0,0 l/m 0 min 0 min 0 W/m 12,6 km/h (3 Bft) 100,00 %
30.10.2017 06:04 5,2 C 3,9 C 2,8 C 93 % 2 lf 1023,5 hPa 0,0 l/m 0 min 0 min 0 W/m 10,5 km/h (2 Bft) 95,74 %
30.10.2017 06:06 5,1 C 3,9 C 2,8 C 93 % 2 lf 1023,4 hPa 0,0 l/m 0 min 0 min 0 W/m 8,4 km/h (2 Bft) 100,00 %
30.10.2017 06:10 5,1 C 3,9 C 2,8 C 93 % 2 lf 1023,5 hPa 0,0 l/m 0 min 0 min 0 W/m 10,5 km/h (2 Bft) 98,08 %
30.10.2017 06:12 5,1 C 3,9 C 2,8 C 93 % 2 lf 1023,4 hPa 0,0 l/m 0 min 0 min 0 W/m 12,6 km/h (3 Bft) 93,75 %
30.10.2017 06:14 5,1 C 3,9 C 2,8 C 93 % 2 lf 1023,5 hPa 0,0 l/m 0 min 0 min 0 W/m 6,3 km/h (2 Bft) 100,00 %
30.10.2017 06:16 5,0 C 3,9 C 2,8 C 93 % 2 lf 1023,5 hPa 0,0 l/m 0 min 0 min 0 W/m 8,4 km/h (2 Bft) 98,28 %
30.10.2017 06:18 5,0 C 3,9 C 2,8 C 93 % 2 lf 1023,5 hPa 0,0 l/m 0 min 0 min 0 W/m 12,6 km/h (3 Bft) 97,22 %
30.10.2017 06:20 5,0 C 3,9 C 2,8 C 93 % 2 lf 1023,6 hPa 0,0 l/m 0 min 0 min 0 W/m 6,3 km/h (2 Bft) 96,36 %
30.10.2017 06:22 4,9 C 3,9 C 2,8 C 93 % 2 lf 1023,5 hPa 0,0 l/m 0 min 0 min 0 W/m 8,4 km/h (2 Bft) 97,87 %
30.10.2017 06:24 4,9 C 3,9 C 2,8 C 93 % 2 lf 1023,5 hPa 0,0 l/m 0 min 0 min 0 W/m 10,5 km/h (2 Bft) 97,96 %
30.10.2017 06:26 4,9 C 3,9 C 2,8 C 93 % 2 lf 1023,5 hPa 0,0 l/m 0 min 0 min 0 W/m 10,5 km/h (2 Bft) 97,87 %
30.10.2017 06:28 4,9 C 3,9 C 2,8 C 93 % 2 lf 1023,4 hPa 0,0 l/m 0 min 0 min 0 W/m 14,6 km/h (3 Bft) 95,74 %
30.10.2017 06:30 4,9 C 3,9 C 2,8 C 93 % 2 lf 1023,5 hPa 0,0 l/m 0 min 0 min 0 W/m 18,8 km/h (3 Bft) 97,22 %
30.10.2017 06:32 4,8 C 3,9 C 2,8 C 93 % 2 lf 1023,6 hPa 0,0 l/m 0 min 0 min 0 W/m 8,4 km/h (2 Bft) 98,18 %
30.10.2017 06:34 4,8 C 3,9 C 2,2 C 93 % 2 lf 1023,6 hPa 0,0 l/m 0 min 0 min 0 W/m 6,3 km/h (2 Bft) 98,00 %
30.10.2017 06:36 4,8 C 3,9 C 2,8 C 93 % 2 lf 1023,7 hPa 0,0 l/m 0 min 0 min 0 W/m 6,3 km/h (2 Bft) 95,92 %
30.10.2017 06:38 4,8 C 3,9 C 2,8 C 93 % 2 lf 1023,8 hPa 0,0 l/m 0 min 0 min 0 W/m 6,3 km/h (2 Bft) 94,44 %
30.10.2017 06:40 4,8 C 3,9 C 2,2 C 93 % 2 lf 1023,7 hPa 0,0 l/m 0 min 0 min 0 W/m 14,6 km/h (3 Bft) 95,74 %
30.10.2017 06:42 4,7 C 3,9 C 2,2 C 93 % 3 lf 1023,7 hPa 0,0 l/m 0 min 0 min 0 W/m 10,5 km/h (2 Bft) 100,00 %
30.10.2017 06:44 4,7 C 3,3 C 2,2 C 93 % 3 lf 1023,8 hPa 0,0 l/m 0 min 0 min 0 W/m 6,3 km/h (2 Bft) 100,00 %
30.10.2017 06:46 4,7 C 3,3 C 2,2 C 93 % 3 lf 1023,8 hPa 0,0 l/m 0 min 0 min 0 W/m 4,2 km/h (1 Bft) 100,00 %
30.10.2017 06:48 4,7 C 3,9 C 2,2 C 93 % 3 lf 1023,7 hPa 0,0 l/m 0 min 0 min 0 W/m 12,6 km/h (3 Bft) 100,00 %
30.10.2017 06:50 4,7 C 3,3 C 2,2 C 93 % 3 lf 1023,8 hPa 0,0 l/m 0 min 0 min 0 W/m 8,4 km/h (2 Bft) 100,00 %
30.10.2017 06:52 4,7 C 3,3 C 2,2 C 93 % 3 lf 1023,8 hPa 0,0 l/m 0 min 0 min 0 W/m 6,3 km/h (2 Bft) 100,00 %
30.10.2017 06:54 4,6 C 3,3 C 2,2 C 93 % 3 lf 1023,8 hPa 0,0 l/m 0 min 0 min 0 W/m 10,5 km/h (2 Bft) 97,83 %
30.10.2017 06:56 4,6 C 3,3 C 2,2 C 93 % 3 lf 1023,9 hPa 0,0 l/m 0 min 0 min 0 W/m 10,5 km/h (2 Bft) 100,00 %
30.10.2017 06:58 4,6 C 3,3 C 2,2 C 93 % 3 lf 1023,9 hPa 0,0 l/m 0 min 0 min 0 W/m 8,4 km/h (2 Bft) 97,87 %
30.10.2017 07:00 4,6 C 3,3 C 2,2 C 93 % 3 lf 1023,8 hPa 0,0 l/m 0 min 0 min 0 W/m 10,5 km/h (2 Bft) 100,00 %
30.10.2017 07:02 4,6 C 3,9 C 2,8 C 93 % 3 lf 1023,8 hPa 0,0 l/m 0 min 0 min 0 W/m 18,8 km/h (3 Bft) 100,00 %
30.10.2017 07:04 4,6 C 3,9 C 2,8 C 93 % 3 lf 1023,9 hPa 0,0 l/m 0 min 0 min 0 W/m 6,3 km/h (2 Bft) 100,00 %
30.10.2017 07:06 4,6 C 3,9 C 2,8 C 93 % 3 lf 1023,9 hPa 0,0 l/m 0 min 0 min 0 W/m 12,6 km/h (3 Bft) 97,14 %
30.10.2017 07:08 4,6 C 3,9 C 2,8 C 93 % 2 lf 1023,9 hPa 0,0 l/m 0 min 0 min 0 W/m 14,6 km/h (3 Bft) 100,00 %
30.10.2017 07:10 4,6 C 3,9 C 2,8 C 93 % 2 lf 1023,9 hPa 0,0 l/m 0 min 0 min 0 W/m 14,6 km/h (3 Bft) 100,00 %
30.10.2017 07:12 4,6 C 3,9 C 2,8 C 93 % 2 lf 1024,0 hPa 0,0 l/m 0 min 0 min 0 W/m 16,7 km/h (3 Bft) 100,00 %
30.10.2017 07:14 4,6 C 3,9 C 2,8 C 93 % 2 lf 1024,0 hPa 0,0 l/m 0 min 0 min 0 W/m 14,6 km/h (3 Bft) 100,00 %
30.10.2017 07:16 4,6 C 3,9 C 2,8 C 93 % 2 lf 1024,0 hPa 0,0 l/m 0 min 0 min 0 W/m 12,6 km/h (3 Bft) 97,87 %
30.10.2017 07:18 4,6 C 3,9 C 2,8 C 93 % 2 lf 1024,0 hPa 0,0 l/m 0 min 0 min 5 W/m 14,6 km/h (3 Bft) 98,00 %
30.10.2017 07:20 4,6 C 3,9 C 2,8 C 93 % 2 lf 1023,9 hPa 0,0 l/m 0 min 0 min 5 W/m 12,6 km/h (3 Bft) 100,00 %
30.10.2017 07:22 4,6 C 3,9 C 2,8 C 93 % 2 lf 1024,0 hPa 0,0 l/m 0 min 0 min 5 W/m 10,5 km/h (2 Bft) 100,00 %
30.10.2017 07:24 4,6 C 3,9 C 2,8 C 93 % 2 lf 1023,9 hPa 0,0 l/m 0 min 0 min 6 W/m 14,6 km/h (3 Bft) 100,00 %
30.10.2017 07:26 4,6 C 3,9 C 2,8 C 93 % 2 lf 1024,0 hPa 0,0 l/m 0 min 0 min 7 W/m 10,5 km/h (2 Bft) 96,36 %
30.10.2017 07:28 4,6 C 3,9 C 2,8 C 93 % 2 lf 1024,0 hPa 0,0 l/m 0 min 0 min 7 W/m 8,4 km/h (2 Bft) 100,00 %
30.10.2017 07:30 4,6 C 3,9 C 2,8 C 93 % 2 lf 1024,0 hPa 0,0 l/m 0 min 0 min 9 W/m 6,3 km/h (2 Bft) 100,00 %
30.10.2017 07:32 4,6 C 3,9 C 2,8 C 93 % 2 lf 1024,0 hPa 0,0 l/m 0 min 0 min 11 W/m 10,5 km/h (2 Bft) 100,00 %
30.10.2017 07:34 4,6 C 3,9 C 2,8 C 93 % 2 lf 1024,0 hPa 0,0 l/m 0 min 0 min 11 W/m 8,4 km/h (2 Bft) 95,74 %
30.10.2017 07:36 4,6 C 3,9 C 2,8 C 93 % 2 lf 1024,1 hPa 0,0 l/m 0 min 0 min 12 W/m 14,6 km/h (3 Bft) 97,87 %
30.10.2017 07:38 4,6 C 3,9 C 2,8 C 93 % 2 lf 1024,1 hPa 0,0 l/m 0 min 0 min 13 W/m 10,5 km/h (2 Bft) 98,18 %
30.10.2017 07:40 4,5 C 3,9 C 2,2 C 93 % 2 lf 1024,0 hPa 0,0 l/m 0 min 0 min 14 W/m 10,5 km/h (2 Bft) 98,00 %
30.10.2017 07:42 4,5 C 3,9 C 2,2 C 93 % 3 lf 1024,1 hPa 0,0 l/m 0 min 0 min 17 W/m 6,3 km/h (2 Bft) 97,14 %
30.10.2017 07:44 4,5 C 3,9 C 2,8 C 93 % 2 lf 1024,2 hPa 0,0 l/m 0 min 0 min 19 W/m 12,6 km/h (3 Bft) 97,87 %
30.10.2017 07:46 4,5 C 3,9 C 2,8 C 93 % 2 lf 1024,2 hPa 0,0 l/m 2 min 0 min 24 W/m 8,4 km/h (2 Bft) 96,36 %
30.10.2017 07:48 4,5 C 4,4 C 2,8 C 93 % 2 lf 1024,2 hPa 0,0 l/m 2 min 0 min 27 W/m 10,5 km/h (2 Bft) 97,87 %
30.10.2017 07:50 4,5 C 4,4 C 2,8 C 93 % 2 lf 1024,2 hPa 0,0 l/m 2 min 0 min 28 W/m 10,5 km/h (2 Bft) 97,87 %
30.10.2017 07:52 4,5 C 4,4 C 2,8 C 93 % 2 lf 1024,2 hPa 0,0 l/m 2 min 0 min 30 W/m 10,5 km/h (2 Bft) 97,87 %
30.10.2017 07:54 4,5 C 4,4 C 2,8 C 94 % 2 lf 1024,2 hPa 0,0 l/m 2 min 0 min 32 W/m 12,6 km/h (3 Bft) 95,74 %
30.10.2017 07:56 4,5 C 4,4 C 2,8 C 94 % 2 lf 1024,2 hPa 0,0 l/m 2 min 0 min 33 W/m 10,5 km/h (2 Bft) 97,83 %
30.10.2017 07:58 4,6 C 4,4 C 3,3 C 94 % 2 lf 1024,3 hPa 0,0 l/m 0 min 0 min 34 W/m 8,4 km/h (2 Bft) 90,00 %
30.10.2017 08:00 4,6 C 4,4 C 3,3 C 94 % 2 lf 1024,4 hPa 0,0 l/m 0 min 0 min 36 W/m 10,5 km/h (2 Bft) 93,62 %
30.10.2017 08:02 4,6 C 4,4 C 3,3 C 94 % 2 lf 1024,4 hPa 0,0 l/m 0 min 0 min 37 W/m 10,5 km/h (2 Bft) 97,22 %
30.10.2017 08:04 4,6 C 4,4 C 3,3 C 94 % 2 lf 1024,4 hPa 0,0 l/m 0 min 0 min 41 W/m 6,3 km/h (2 Bft) 89,13 %
30.10.2017 08:06 4,6 C 4,4 C 3,3 C 94 % 1 lf 1024,4 hPa 0,0 l/m 0 min 0 min 44 W/m 6,3 km/h (2 Bft) 91,49 %
30.10.2017 08:08 4,6 C 5,0 C 3,3 C 94 % 1 lf 1024,5 hPa 0,0 l/m 2 min 0 min 47 W/m 10,5 km/h (2 Bft) 91,07 %
30.10.2017 08:10 4,7 C 5,0 C 3,3 C 94 % 1 lf 1024,6 hPa 0,0 l/m 0 min 0 min 49 W/m 14,6 km/h (3 Bft) 91,30 %
30.10.2017 08:12 4,7 C 5,0 C 3,3 C 94 % 1 lf 1024,6 hPa 0,0 l/m 2 min 0 min 53 W/m 12,6 km/h (3 Bft) 91,49 %
30.10.2017 08:14 4,7 C 5,0 C 3,3 C 94 % 1 lf 1024,7 hPa 0,0 l/m 2 min 0 min 55 W/m 12,6 km/h (3 Bft) 89,36 %
30.10.2017 08:16 4,7 C 5,0 C 3,3 C 94 % 1 lf 1024,7 hPa 0,0 l/m 2 min 0 min 59 W/m 12,6 km/h (3 Bft) 92,00 %
30.10.2017 08:18 4,7 C 5,0 C 3,3 C 94 % 1 lf 1024,7 hPa 0,0 l/m 2 min 0 min 62 W/m 10,5 km/h (2 Bft) 93,62 %
30.10.2017 08:20 4,7 C 5,0 C 3,3 C 94 % 1 lf 1024,7 hPa 0,0 l/m 2 min 0 min 68 W/m 8,4 km/h (2 Bft) 93,62 %
30.10.2017 08:22 4,8 C 5,0 C 3,3 C 94 % 1 lf 1024,8 hPa 0,0 l/m 2 min 0 min 71 W/m 6,3 km/h (2 Bft) 91,43 %
30.10.2017 08:24 4,8 C 5,0 C 3,9 C 94 % 1 lf 1024,8 hPa 0,0 l/m 2 min 0 min 76 W/m 14,6 km/h (3 Bft) 95,74 %
30.10.2017 08:26 4,8 C 5,6 C 3,9 C 94 % 1 lf 1024,8 hPa 0,0 l/m 2 min 0 min 80 W/m 6,3 km/h (2 Bft) 94,55 %
30.10.2017 08:28 4,8 C 5,6 C 3,9 C 94 % 1 lf 1024,9 hPa 0,0 l/m 2 min 0 min 84 W/m 12,6 km/h (3 Bft) 96,00 %
30.10.2017 08:30 4,8 C 5,6 C 3,9 C 94 % 1 lf 1024,9 hPa 0,0 l/m 2 min 0 min 90 W/m 16,7 km/h (3 Bft) 94,29 %
30.10.2017 08:32 4,9 C 5,6 C 4,4 C 94 % 1 lf 1024,9 hPa 0,0 l/m 2 min 0 min 96 W/m 14,6 km/h (3 Bft) 95,74 %
30.10.2017 08:34 4,9 C 6,1 C 4,4 C 94 % 1 lf 1024,9 hPa 0,0 l/m 2 min 0 min 91 W/m 12,6 km/h (3 Bft) 95,74 %
30.10.2017 08:36 4,9 C 6,1 C 4,4 C 94 % 1 lf 1024,9 hPa 0,0 l/m 2 min 0 min 110 W/m 8,4 km/h (2 Bft) 92,73 %
30.10.2017 08:38 4,9 C 6,1 C 4,4 C 94 % 1 lf 1025,0 hPa 0,0 l/m 2 min 0 min 111 W/m 10,5 km/h (2 Bft) 92,00 %
30.10.2017 08:40 5,0 C 6,1 C 4,4 C 95 % 1 lf 1025,0 hPa 0,0 l/m 2 min 0 min 114 W/m 16,7 km/h (3 Bft) 97,14 %
30.10.2017 08:42 5,1 C 6,1 C 4,4 C 95 % 1 lf 1025,1 hPa 0,0 l/m 2 min 0 min 115 W/m 12,6 km/h (3 Bft) 95,74 %
30.10.2017 08:44 5,1 C 6,1 C 4,4 C 95 % 1 lf 1025,1 hPa 0,0 l/m 2 min 0 min 120 W/m 12,6 km/h (3 Bft) 93,62 %
30.10.2017 08:46 5,1 C 6,7 C 4,4 C 94 % 1 lf 1025,1 hPa 0,0 l/m 2 min 0 min 126 W/m 10,5 km/h (2 Bft) 96,36 %
30.10.2017 08:48 5,2 C 6,7 C 4,4 C 95 % 1 lf 1025,2 hPa 0,0 l/m 2 min 0 min 130 W/m 10,5 km/h (2 Bft) 96,00 %
30.10.2017 08:50 5,2 C 6,7 C 5,0 C 95 % 0 lf 1025,2 hPa 0,0 l/m 2 min 0 min 134 W/m 12,6 km/h (3 Bft) 95,74 %
30.10.2017 08:52 5,3 C 6,7 C 5,0 C 95 % 0 lf 1025,2 hPa 0,0 l/m 2 min 0 min 137 W/m 16,7 km/h (3 Bft) 97,14 %
30.10.2017 08:54 5,4 C 6,7 C 5,0 C 95 % 0 lf 1025,3 hPa 0,0 l/m 2 min 0 min 138 W/m 14,6 km/h (3 Bft) 91,49 %
30.10.2017 08:56 5,4 C 7,2 C 5,0 C 95 % 0 lf 1025,3 hPa 0,0 l/m 2 min 0 min 141 W/m 12,6 km/h (3 Bft) 97,87 %
30.10.2017 08:58 5,4 C 7,2 C 5,0 C 95 % 0 lf 1025,3 hPa 0,0 l/m 2 min 0 min 148 W/m 12,6 km/h (3 Bft) 95,74 %
30.10.2017 09:00 5,5 C 7,2 C 5,0 C 95 % 0 lf 1025,3 hPa 0,0 l/m 2 min 0 min 154 W/m 14,6 km/h (3 Bft) 98,18 %
30.10.2017 09:02 5,6 C 7,2 C 5,0 C 95 % 0 lf 1025,4 hPa 0,0 l/m 2 min 0 min 159 W/m 14,6 km/h (3 Bft) 94,00 %
30.10.2017 09:04 5,6 C 8,3 C 5,6 C 95 % 0 lf 1025,3 hPa 0,0 l/m 2 min 0 min 163 W/m 16,7 km/h (3 Bft) 97,14 %
30.10.2017 09:06 5,7 C 10,0 C 5,6 C 95 % 0 lf 1025,4 hPa 0,0 l/m 2 min 0 min 168 W/m 14,6 km/h (3 Bft) 97,87 %
30.10.2017 09:08 5,7 C 11,7 C 5,6 C 95 % 0 lf 1025,4 hPa 0,0 l/m 2 min 0 min 173 W/m 14,6 km/h (3 Bft) 96,36 %
30.10.2017 09:10 5,8 C 12,8 C 5,6 C 95 % 0 lf 1025,4 hPa 0,0 l/m 2 min 0 min 178 W/m 10,5 km/h (2 Bft) 98,00 %
30.10.2017 09:12 5,9 C 13,3 C 5,6 C 95 % 0 lf 1025,4 hPa 0,0 l/m 2 min 0 min 184 W/m 12,6 km/h (3 Bft) 94,44 %
30.10.2017 09:14 5,9 C 14,4 C 5,6 C 95 % 0 lf 1025,4 hPa 0,0 l/m 2 min 0 min 189 W/m 14,6 km/h (3 Bft) 95,65 %
30.10.2017 09:16 6,0 C 13,9 C 5,6 C 95 % 0 lf 1025,4 hPa 0,0 l/m 2 min 0 min 193 W/m 18,8 km/h (3 Bft) 97,87 %
30.10.2017 09:18 6,1 C 13,9 C 5,6 C 95 % 0 lf 1025,4 hPa 0,0 l/m 2 min 0 min 198 W/m 18,8 km/h (3 Bft) 97,87 %
30.10.2017 09:20 6,2 C 14,4 C 5,6 C 95 % 0 lf 1025,4 hPa 0,0 l/m 2 min 0 min 201 W/m 12,6 km/h (3 Bft) 100,00 %
30.10.2017 09:22 6,3 C 15,0 C 5,6 C 95 % 0 lf 1025,4 hPa 0,0 l/m 2 min 0 min 206 W/m 10,5 km/h (2 Bft) 100,00 %
30.10.2017 09:24 6,4 C 15,6 C 6,1 C 95 % 0 lf 1025,4 hPa 0,0 l/m 2 min 0 min 209 W/m 14,6 km/h (3 Bft) 100,00 %
30.10.2017 09:26 6,4 C 14,4 C 6,1 C 95 % 0 lf 1025,4 hPa 0,0 l/m 2 min 0 min 215 W/m 14,6 km/h (3 Bft) 100,00 %
30.10.2017 09:28 6,5 C 15,0 C 6,1 C 94 % 0 lf 1025,4 hPa 0,0 l/m 2 min 0 min 218 W/m 12,6 km/h (3 Bft) 100,00 %
30.10.2017 09:30 6,6 C 16,1 C 6,1 C 94 % 0 lf 1025,4 hPa 0,0 l/m 2 min 0 min 222 W/m 12,6 km/h (3 Bft) 93,62 %
30.10.2017 09:32 6,7 C 16,1 C 6,7 C 94 % 0 lf 1025,4 hPa 0,0 l/m 2 min 0 min 229 W/m 8,4 km/h (2 Bft) 100,00 %
30.10.2017 09:34 6,8 C 17,2 C 6,7 C 94 % 0 lf 1025,4 hPa 0,0 l/m 2 min 0 min 236 W/m 12,6 km/h (3 Bft) 100,00 %
30.10.2017 09:36 6,9 C 17,8 C 6,7 C 94 % 0 lf 1025,4 hPa 0,0 l/m 2 min 0 min 242 W/m 14,6 km/h (3 Bft) 100,00 %
30.10.2017 09:38 7,0 C 17,2 C 6,7 C 94 % 0 lf 1025,4 hPa 0,0 l/m 2 min 0 min 244 W/m 10,5 km/h (2 Bft) 100,00 %
30.10.2017 09:40 7,1 C 17,8 C 6,7 C 94 % 0 lf 1025,4 hPa 0,0 l/m 2 min 0 min 248 W/m 18,8 km/h (3 Bft) 100,00 %
30.10.2017 09:42 7,2 C 17,2 C 6,7 C 94 % 0 lf 1025,4 hPa 0,0 l/m 2 min 0 min 250 W/m 12,6 km/h (3 Bft) 97,87 %
30.10.2017 09:44 7,3 C 16,7 C 6,7 C 94 % 0 lf 1025,5 hPa 0,0 l/m 2 min 0 min 256 W/m 18,8 km/h (3 Bft) 100,00 %
30.10.2017 09:46 7,4 C 16,7 C 6,7 C 93 % 0 lf 1025,5 hPa 0,0 l/m 2 min 0 min 261 W/m 12,6 km/h (3 Bft) 94,74 %
30.10.2017 09:48 7,5 C 16,7 C 6,7 C 93 % 0 lf 1025,5 hPa 0,0 l/m 2 min 0 min 261 W/m 16,7 km/h (3 Bft) 100,00 %
30.10.2017 09:50 7,6 C 17,2 C 7,2 C 93 % 0 lf 1025,5 hPa 0,0 l/m 2 min 0 min 262 W/m 10,5 km/h (2 Bft) 100,00 %
30.10.2017 09:52 7,7 C 17,8 C 7,2 C 92 % 0 lf 1025,5 hPa 0,0 l/m 2 min 0 min 267 W/m 23,0 km/h (4 Bft) 100,00 %
30.10.2017 09:54 7,8 C 17,2 C 7,2 C 92 % 0 lf 1025,5 hPa 0,0 l/m 2 min 0 min 274 W/m 16,7 km/h (3 Bft) 96,36 %
30.10.2017 09:56 7,8 C 17,2 C 7,2 C 91 % 0 lf 1025,6 hPa 0,0 l/m 2 min 0 min 279 W/m 18,8 km/h (3 Bft) 100,00 %
30.10.2017 09:58 7,9 C 17,8 C 7,2 C 91 % 0 lf 1025,6 hPa 0,0 l/m 2 min 0 min 286 W/m 20,9 km/h (4 Bft) 97,87 %
30.10.2017 10:00 8,0 C 17,2 C 7,2 C 91 % 0 lf 1025,6 hPa 0,0 l/m 2 min 0 min 262 W/m 18,8 km/h (3 Bft) 97,87 %
30.10.2017 10:02 8,1 C 17,2 C 7,2 C 90 % 0 lf 1025,6 hPa 0,0 l/m 2 min 0 min 275 W/m 18,8 km/h (3 Bft) 97,37 %
30.10.2017 10:04 8,2 C 17,2 C 7,2 C 90 % 0 lf 1025,5 hPa 0,0 l/m 2 min 0 min 290 W/m 8,4 km/h (2 Bft) 100,00 %
30.10.2017 10:06 8,3 C 17,8 C 7,2 C 90 % 0 lf 1025,6 hPa 0,0 l/m 2 min 0 min 288 W/m 10,5 km/h (2 Bft) 100,00 %
30.10.2017 10:08 8,4 C 18,9 C 7,2 C 89 % 0 lf 1025,6 hPa 0,0 l/m 2 min 0 min 297 W/m 14,6 km/h (3 Bft) 100,00 %
30.10.2017 10:10 8,4 C 18,3 C 7,2 C 89 % 0 lf 1025,6 hPa 0,0 l/m 2 min 0 min 299 W/m 14,6 km/h (3 Bft) 100,00 %
30.10.2017 10:12 8,5 C 18,3 C 7,8 C 89 % 0 lf 1025,7 hPa 0,0 l/m 2 min 0 min 302 W/m 12,6 km/h (3 Bft) 98,18 %
30.10.2017 10:14 8,6 C 18,9 C 7,8 C 88 % 0 lf 1025,7 hPa 0,0 l/m 2 min 0 min 307 W/m 10,5 km/h (2 Bft) 100,00 %
30.10.2017 10:16 8,7 C 19,4 C 7,8 C 88 % 0 lf 1025,6 hPa 0,0 l/m 2 min 0 min 309 W/m 8,4 km/h (2 Bft) 100,00 %
30.10.2017 10:18 8,7 C 19,4 C 7,8 C 87 % 0 lf 1025,6 hPa 0,0 l/m 2 min 0 min 310 W/m 12,6 km/h (3 Bft) 100,00 %
30.10.2017 10:20 8,8 C 18,9 C 7,8 C 87 % 0 lf 1025,6 hPa 0,0 l/m 2 min 0 min 314 W/m 10,5 km/h (2 Bft) 100,00 %
30.10.2017 10:22 8,8 C 20,0 C 7,8 C 86 % 0 lf 1025,6 hPa 0,0 l/m 2 min 0 min 319 W/m 8,4 km/h (2 Bft) 97,87 %
30.10.2017 10:24 8,9 C 19,4 C 7,8 C 86 % 0 lf 1025,6 hPa 0,0 l/m 2 min 0 min 322 W/m 12,6 km/h (3 Bft) 100,00 %
30.10.2017 10:26 9,0 C 19,4 C 7,8 C 86 % 0 lf 1025,7 hPa 0,0 l/m 2 min 0 min 325 W/m 16,7 km/h (3 Bft) 100,00 %
30.10.2017 10:28 9,1 C 19,4 C 7,8 C 85 % 0 lf 1025,7 hPa 0,0 l/m 2 min 0 min 328 W/m 12,6 km/h (3 Bft) 97,37 %
30.10.2017 10:30 9,2 C 20,0 C 7,8 C 85 % 0 lf 1025,7 hPa 0,0 l/m 2 min 0 min 329 W/m 12,6 km/h (3 Bft) 95,65 %
30.10.2017 10:32 9,2 C 20,0 C 7,8 C 85 % 0 lf 1025,7 hPa 0,0 l/m 2 min 0 min 331 W/m 16,7 km/h (3 Bft) 95,83 %
30.10.2017 10:34 9,3 C 20,0 C 7,8 C 85 % 0 lf 1025,7 hPa 0,0 l/m 2 min 0 min 331 W/m 14,6 km/h (3 Bft) 95,65 %
30.10.2017 10:36 9,3 C 19,4 C 8,3 C 84 % 0 lf 1025,7 hPa 0,0 l/m 2 min 0 min 338 W/m 16,7 km/h (3 Bft) 93,62 %
30.10.2017 10:38 9,4 C 19,4 C 8,3 C 84 % 0 lf 1025,7 hPa 0,0 l/m 2 min 0 min 339 W/m 14,6 km/h (3 Bft) 91,49 %
30.10.2017 10:40 9,5 C 19,4 C 8,3 C 83 % 0 lf 1025,7 hPa 0,0 l/m 2 min 0 min 339 W/m 14,6 km/h (3 Bft) 92,73 %
30.10.2017 10:42 9,6 C 18,9 C 8,3 C 83 % 0 lf 1025,7 hPa 0,0 l/m 2 min 0 min 346 W/m 18,8 km/h (3 Bft) 94,74 %
30.10.2017 10:44 9,6 C 19,4 C 8,3 C 83 % 0 lf 1025,7 hPa 0,0 l/m 2 min 0 min 347 W/m 16,7 km/h (3 Bft) 95,83 %
30.10.2017 10:46 9,7 C 19,4 C 8,3 C 82 % 0 lf 1025,7 hPa 0,0 l/m 2 min 0 min 352 W/m 10,5 km/h (2 Bft) 95,74 %
30.10.2017 10:48 9,7 C 19,4 C 8,3 C 81 % 0 lf 1025,7 hPa 0,0 l/m 2 min 0 min 353 W/m 18,8 km/h (3 Bft) 94,55 %
30.10.2017 10:50 9,7 C 20,0 C 8,3 C 81 % 0 lf 1025,7 hPa 0,0 l/m 2 min 0 min 354 W/m 14,6 km/h (3 Bft) 91,49 %
30.10.2017 10:52 9,8 C 20,0 C 8,3 C 81 % 0 lf 1025,7 hPa 0,0 l/m 2 min 0 min 357 W/m 16,7 km/h (3 Bft) 86,96 %
30.10.2017 10:54 9,8 C 20,6 C 8,3 C 80 % 0 lf 1025,7 hPa 0,0 l/m 2 min 0 min 357 W/m 12,6 km/h (3 Bft) 89,47 %
30.10.2017 10:56 9,8 C 20,0 C 8,3 C 80 % 0 lf 1025,8 hPa 0,0 l/m 2 min 0 min 357 W/m 12,6 km/h (3 Bft) 89,58 %
30.10.2017 10:58 9,9 C 20,0 C 8,3 C 80 % 0 lf 1025,7 hPa 0,0 l/m 2 min 0 min 350 W/m 12,6 km/h (3 Bft) 89,13 %
30.10.2017 11:00 9,9 C 20,6 C 8,3 C 80 % 0 lf 1025,8 hPa 0,0 l/m 2 min 0 min 367 W/m 14,6 km/h (3 Bft) 92,86 %
30.10.2017 11:02 10,0 C 20,6 C 8,9 C 80 % 0 lf 1025,8 hPa 0,0 l/m 2 min 0 min 371 W/m 20,9 km/h (4 Bft) 89,47 %
30.10.2017 11:04 10,1 C 20,0 C 8,9 C 80 % 0 lf 1025,8 hPa 0,0 l/m 2 min 0 min 367 W/m 20,9 km/h (4 Bft) 91,49 %
30.10.2017 11:06 10,1 C 20,0 C 8,9 C 79 % 0 lf 1025,9 hPa 0,0 l/m 2 min 0 min 369 W/m 14,6 km/h (3 Bft) 91,49 %
30.10.2017 11:08 10,2 C 19,4 C 8,9 C 79 % 0 lf 1025,9 hPa 0,0 l/m 2 min 0 min 373 W/m 18,8 km/h (3 Bft) 92,73 %
30.10.2017 11:10 10,2 C 20,6 C 8,9 C 79 % 0 lf 1026,0 hPa 0,0 l/m 2 min 0 min 372 W/m 16,7 km/h (3 Bft) 89,47 %
30.10.2017 11:12 10,3 C 20,6 C 8,9 C 79 % 0 lf 1025,9 hPa 0,0 l/m 2 min 0 min 374 W/m 12,6 km/h (3 Bft) 91,49 %
30.10.2017 11:14 10,3 C 20,6 C 8,9 C 79 % 0 lf 1026,0 hPa 0,0 l/m 2 min 0 min 373 W/m 18,8 km/h (3 Bft) 89,36 %
30.10.2017 11:16 10,3 C 21,7 C 8,9 C 78 % 0 lf 1025,9 hPa 0,0 l/m 2 min 0 min 373 W/m 16,7 km/h (3 Bft) 93,62 %
30.10.2017 11:18 10,4 C 21,1 C 8,9 C 78 % 0 lf 1026,0 hPa 0,0 l/m 2 min 0 min 382 W/m 18,8 km/h (3 Bft) 95,74 %
30.10.2017 11:20 10,4 C 21,1 C 8,9 C 78 % 0 lf 1026,0 hPa 0,0 l/m 2 min 0 min 391 W/m 18,8 km/h (3 Bft) 90,91 %
30.10.2017 11:22 10,4 C 20,6 C 9,4 C 78 % 0 lf 1026,0 hPa 0,0 l/m 2 min 0 min 400 W/m 14,6 km/h (3 Bft) 95,74 %
30.10.2017 11:24 10,5 C 19,4 C 9,4 C 78 % 0 lf 1026,0 hPa 0,0 l/m 2 min 0 min 397 W/m 18,8 km/h (3 Bft) 97,37 %
30.10.2017 11:26 10,6 C 20,0 C 9,4 C 78 % 0 lf 1026,0 hPa 0,0 l/m 2 min 0 min 391 W/m 16,7 km/h (3 Bft) 93,62 %
30.10.2017 11:28 10,6 C 20,6 C 9,4 C 77 % 0 lf 1026,1 hPa 0,0 l/m 2 min 0 min 389 W/m 16,7 km/h (3 Bft) 95,74 %
30.10.2017 11:30 10,6 C 20,6 C 9,4 C 77 % 0 lf 1026,0 hPa 0,0 l/m 2 min 0 min 392 W/m 18,8 km/h (3 Bft) 96,36 %
30.10.2017 11:32 10,7 C 20,6 C 9,4 C 77 % 0 lf 1026,1 hPa 0,0 l/m 2 min 0 min 393 W/m 18,8 km/h (3 Bft) 94,74 %
30.10.2017 11:34 10,7 C 20,0 C 9,4 C 77 % 0 lf 1026,1 hPa 0,0 l/m 2 min 0 min 394 W/m 14,6 km/h (3 Bft) 95,74 %
30.10.2017 11:36 10,7 C 21,1 C 9,4 C 77 % 0 lf 1026,1 hPa 0,0 l/m 2 min 0 min 394 W/m 12,6 km/h (3 Bft) 93,62 %
30.10.2017 11:38 10,7 C 21,7 C 9,4 C 76 % 0 lf 1026,0 hPa 0,0 l/m 2 min 0 min 395 W/m 14,6 km/h (3 Bft) 96,36 %
30.10.2017 11:40 10,8 C 21,1 C 9,4 C 76 % 0 lf 1026,0 hPa 0,0 l/m 2 min 0 min 399 W/m 14,6 km/h (3 Bft) 94,74 %
30.10.2017 11:42 10,8 C 20,6 C 9,4 C 76 % 0 lf 1026,1 hPa 0,0 l/m 2 min 0 min 394 W/m 14,6 km/h (3 Bft) 95,83 %
30.10.2017 11:44 10,8 C 21,1 C 9,4 C 76 % 0 lf 1026,1 hPa 0,0 l/m 2 min 0 min 395 W/m 18,8 km/h (3 Bft) 95,74 %
30.10.2017 11:46 10,8 C 20,6 C 9,4 C 76 % 0 lf 1026,1 hPa 0,0 l/m 2 min 0 min 396 W/m 18,8 km/h (3 Bft) 92,73 %
30.10.2017 11:48 10,9 C 20,6 C 9,4 C 76 % 0 lf 1026,1 hPa 0,0 l/m 2 min 0 min 400 W/m 18,8 km/h (3 Bft) 100,00 %
30.10.2017 11:50 10,9 C 20,6 C 9,4 C 76 % 0 lf 1026,1 hPa 0,0 l/m 2 min 0 min 408 W/m 14,6 km/h (3 Bft) 97,87 %
30.10.2017 11:52 10,9 C 21,7 C 9,4 C 75 % 0 lf 1026,1 hPa 0,0 l/m 2 min 0 min 411 W/m 16,7 km/h (3 Bft) 97,87 %
30.10.2017 11:54 11,0 C 22,2 C 9,4 C 75 % 0 lf 1026,0 hPa 0,0 l/m 2 min 0 min 418 W/m 14,6 km/h (3 Bft) 100,00 %
30.10.2017 11:56 11,0 C 20,6 C 9,4 C 75 % 0 lf 1026,0 hPa 0,0 l/m 2 min 0 min 419 W/m 20,9 km/h (4 Bft) 97,87 %
30.10.2017 11:58 11,0 C 18,9 C 9,4 C 74 % 0 lf 1026,1 hPa 0,0 l/m 2 min 0 min 388 W/m 20,9 km/h (4 Bft) 100,00 %
30.10.2017 12:00 11,0 C 16,1 C 9,4 C 74 % 0 lf 1026,1 hPa 0,0 l/m 2 min 0 min 331 W/m 23,0 km/h (4 Bft) 100,00 %
30.10.2017 12:02 10,9 C 15,6 C 8,9 C 73 % 0 lf 1026,1 hPa 0,0 l/m 0 min 0 min 110 W/m 20,9 km/h (4 Bft) 100,00 %
30.10.2017 12:04 10,9 C 17,8 C 8,9 C 74 % 0 lf 1026,1 hPa 0,0 l/m 2 min 0 min 412 W/m 16,7 km/h (3 Bft) 100,00 %
30.10.2017 12:06 10,9 C 19,4 C 9,4 C 74 % 0 lf 1026,1 hPa 0,0 l/m 2 min 0 min 429 W/m 14,6 km/h (3 Bft) 100,00 %
30.10.2017 12:10 10,9 C 20,0 C 9,4 C 74 % 0 lf 1026,2 hPa 0,0 l/m 4 min 0 min 431 W/m 23,0 km/h (4 Bft) 100,00 %
30.10.2017 12:12 10,9 C 20,0 C 9,4 C 73 % 0 lf 1026,2 hPa 0,0 l/m 2 min 0 min 441 W/m 18,8 km/h (3 Bft) 100,00 %
30.10.2017 12:14 10,9 C 18,9 C 9,4 C 73 % 0 lf 1026,2 hPa 0,0 l/m 2 min 0 min 426 W/m 16,7 km/h (3 Bft) 100,00 %
30.10.2017 12:16 10,9 C 17,2 C 9,4 C 73 % 0 lf 1026,2 hPa 0,0 l/m 0 min 0 min 97 W/m 18,8 km/h (3 Bft) 100,00 %
30.10.2017 12:18 10,9 C 19,4 C 10,0 C 73 % 0 lf 1026,2 hPa 0,0 l/m 2 min 0 min 364 W/m 14,6 km/h (3 Bft) 100,00 %
30.10.2017 12:20 10,9 C 20,0 C 10,6 C 74 % 0 lf 1026,1 hPa 0,0 l/m 2 min 0 min 514 W/m 16,7 km/h (3 Bft) 100,00 %
30.10.2017 12:22 11,0 C 20,0 C 10,0 C 73 % 0 lf 1026,1 hPa 0,0 l/m 2 min 0 min 508 W/m 12,6 km/h (3 Bft) 100,00 %
30.10.2017 12:24 11,0 C 18,9 C 10,0 C 74 % 0 lf 1026,1 hPa 0,0 l/m 2 min 0 min 508 W/m 20,9 km/h (4 Bft) 100,00 %
30.10.2017 12:26 11,0 C 17,8 C 10,0 C 73 % 0 lf 1026,1 hPa 0,0 l/m 2 min 0 min 508 W/m 16,7 km/h (3 Bft) 100,00 %
30.10.2017 12:28 11,0 C 17,8 C 10,0 C 73 % 0 lf 1026,2 hPa 0,0 l/m 2 min 0 min 508 W/m 16,7 km/h (3 Bft) 100,00 %
30.10.2017 12:30 11,0 C 17,8 C 10,0 C 72 % 0 lf 1026,1 hPa 0,0 l/m 2 min 0 min 471 W/m 23,0 km/h (4 Bft) 100,00 %
30.10.2017 12:32 11,1 C 16,7 C 10,0 C 72 % 0 lf 1026,1 hPa 0,0 l/m 2 min 0 min 283 W/m 20,9 km/h (4 Bft) 100,00 %
30.10.2017 12:34 11,1 C 16,7 C 10,0 C 72 % 0 lf 1026,2 hPa 0,0 l/m 0 min 0 min 129 W/m 10,5 km/h (2 Bft) 100,00 %
30.10.2017 12:36 11,1 C 18,3 C 10,0 C 73 % 0 lf 1026,2 hPa 0,0 l/m 0 min 0 min 128 W/m 14,6 km/h (3 Bft) 100,00 %
30.10.2017 12:38 11,1 C 16,7 C 10,0 C 73 % 0 lf 1026,2 hPa 0,0 l/m 0 min 0 min 142 W/m 16,7 km/h (3 Bft) 100,00 %
30.10.2017 12:40 11,1 C 18,3 C 10,0 C 72 % 0 lf 1026,2 hPa 0,0 l/m 2 min 0 min 237 W/m 16,7 km/h (3 Bft) 100,00 %
30.10.2017 12:42 11,1 C 17,8 C 10,0 C 72 % 0 lf 1026,1 hPa 0,0 l/m 2 min 0 min 478 W/m 20,9 km/h (4 Bft) 100,00 %
30.10.2017 12:44 11,1 C 17,8 C 10,0 C 71 % 0 lf 1026,2 hPa 0,0 l/m 2 min 0 min 478 W/m 18,8 km/h (3 Bft) 100,00 %
30.10.2017 12:46 11,1 C 15,6 C 10,0 C 71 % 0 lf 1026,2 hPa 0,0 l/m 0 min 0 min 156 W/m 20,9 km/h (4 Bft) 98,21 %
30.10.2017 12:48 11,1 C 13,9 C 10,0 C 71 % 0 lf 1026,2 hPa 0,0 l/m 0 min 0 min 166 W/m 16,7 km/h (3 Bft) 97,37 %
30.10.2017 12:50 11,1 C 13,3 C 10,0 C 71 % 0 lf 1026,2 hPa 0,0 l/m 2 min 0 min 215 W/m 16,7 km/h (3 Bft) 97,87 %
30.10.2017 12:52 11,1 C 16,7 C 10,6 C 71 % 0 lf 1026,3 hPa 0,0 l/m 2 min 0 min 432 W/m 14,6 km/h (3 Bft) 97,87 %
30.10.2017 12:54 11,1 C 18,3 C 11,1 C 71 % 0 lf 1026,3 hPa 0,0 l/m 2 min 0 min 554 W/m 8,4 km/h (2 Bft) 96,36 %
30.10.2017 12:56 11,1 C 16,7 C 11,1 C 72 % 0 lf 1026,3 hPa 0,0 l/m 2 min 0 min 214 W/m 16,7 km/h (3 Bft) 97,37 %
30.10.2017 12:58 11,1 C 15,6 C 11,1 C 72 % 0 lf 1026,3 hPa 0,0 l/m 0 min 0 min 197 W/m 16,7 km/h (3 Bft) 97,87 %
30.10.2017 13:00 11,2 C 14,4 C 11,1 C 72 % 0 lf 1026,3 hPa 0,0 l/m 0 min 0 min 173 W/m 14,6 km/h (3 Bft) 97,87 %
30.10.2017 13:02 11,2 C 13,9 C 11,1 C 72 % 0 lf 1026,2 hPa 0,0 l/m 0 min 0 min 167 W/m 14,6 km/h (3 Bft) 96,36 %
30.10.2017 13:04 11,2 C 13,3 C 11,1 C 72 % 0 lf 1026,2 hPa 0,0 l/m 0 min 0 min 191 W/m 10,5 km/h (2 Bft) 97,37 %
30.10.2017 13:06 11,2 C 16,7 C 11,7 C 72 % 0 lf 1026,3 hPa 0,0 l/m 2 min 0 min 326 W/m 8,4 km/h (2 Bft) 93,62 %
30.10.2017 13:08 11,2 C 18,3 C 11,7 C 72 % 0 lf 1026,2 hPa 0,0 l/m 2 min 0 min 538 W/m 8,4 km/h (2 Bft) 95,74 %
30.10.2017 13:10 11,3 C 20,0 C 12,2 C 73 % 0 lf 1026,2 hPa 0,0 l/m 2 min 0 min 517 W/m 16,7 km/h (3 Bft) 91,07 %
30.10.2017 13:12 11,4 C 17,8 C 11,7 C 73 % 0 lf 1026,2 hPa 0,0 l/m 2 min 0 min 230 W/m 14,6 km/h (3 Bft) 97,37 %
30.10.2017 13:14 11,5 C 16,7 C 11,7 C 72 % 0 lf 1026,3 hPa 0,0 l/m 0 min 0 min 150 W/m 10,5 km/h (2 Bft) 93,62 %
30.10.2017 13:16 11,5 C 15,0 C 11,1 C 71 % 0 lf 1026,2 hPa 0,0 l/m 0 min 0 min 148 W/m 20,9 km/h (4 Bft) 95,74 %
30.10.2017 13:18 11,6 C 14,4 C 11,1 C 71 % 0 lf 1026,3 hPa 0,0 l/m 0 min 0 min 135 W/m 18,8 km/h (3 Bft) 96,36 %
30.10.2017 13:20 11,5 C 12,8 C 10,6 C 70 % 0 lf 1026,4 hPa 0,0 l/m 0 min 0 min 144 W/m 27,2 km/h (4 Bft) 96,00 %
30.10.2017 13:22 11,4 C 12,8 C 10,6 C 69 % 0 lf 1026,4 hPa 0,0 l/m 0 min 0 min 154 W/m 18,8 km/h (3 Bft) 94,29 %
30.10.2017 13:24 11,4 C 12,8 C 10,6 C 69 % 0 lf 1026,4 hPa 0,0 l/m 0 min 0 min 151 W/m 14,6 km/h (3 Bft) 95,74 %
30.10.2017 13:26 11,4 C 12,2 C 10,6 C 69 % 0 lf 1026,4 hPa 0,0 l/m 0 min 0 min 132 W/m 10,5 km/h (2 Bft) 95,74 %
30.10.2017 13:28 11,3 C 12,2 C 10,6 C 70 % 0 lf 1026,4 hPa 0,0 l/m 0 min 0 min 123 W/m 20,9 km/h (4 Bft) 92,73 %
30.10.2017 13:30 11,3 C 12,2 C 10,6 C 70 % 0 lf 1026,4 hPa 0,0 l/m 0 min 0 min 125 W/m 18,8 km/h (3 Bft) 100,00 %
30.10.2017 13:32 11,2 C 11,7 C 10,6 C 70 % 0 lf 1026,4 hPa 0,0 l/m 0 min 0 min 132 W/m 18,8 km/h (3 Bft) 95,74 %
30.10.2017 13:34 11,2 C 12,2 C 10,6 C 70 % 0 lf 1026,4 hPa 0,0 l/m 0 min 0 min 133 W/m 14,6 km/h (3 Bft) 95,74 %
30.10.2017 13:36 11,2 C 12,2 C 10,6 C 71 % 0 lf 1026,4 hPa 0,0 l/m 0 min 0 min 143 W/m 16,7 km/h (3 Bft) 98,18 %
30.10.2017 13:38 11,1 C 12,2 C 10,6 C 71 % 0 lf 1026,4 hPa 0,0 l/m 0 min 0 min 154 W/m 12,6 km/h (3 Bft) 94,74 %
30.10.2017 13:40 11,1 C 12,8 C 10,6 C 71 % 0 lf 1026,4 hPa 0,0 l/m 0 min 0 min 178 W/m 18,8 km/h (3 Bft) 95,83 %
30.10.2017 13:42 11,1 C 15,0 C 10,6 C 71 % 0 lf 1026,4 hPa 0,0 l/m 0 min 0 min 183 W/m 14,6 km/h (3 Bft) 95,65 %
30.10.2017 13:44 11,1 C 14,4 C 10,0 C 71 % 0 lf 1026,4 hPa 0,0 l/m 0 min 0 min 159 W/m 16,7 km/h (3 Bft) 94,64 %
30.10.2017 13:46 11,1 C 14,4 C 10,0 C 71 % 0 lf 1026,4 hPa 0,0 l/m 0 min 0 min 128 W/m 16,7 km/h (3 Bft) 97,37 %
30.10.2017 13:48 11,1 C 13,3 C 9,4 C 71 % 0 lf 1026,4 hPa 0,0 l/m 0 min 0 min 97 W/m 12,6 km/h (3 Bft) 97,87 %
30.10.2017 13:50 11,0 C 13,9 C 9,4 C 71 % 0 lf 1026,4 hPa 0,0 l/m 0 min 0 min 91 W/m 10,5 km/h (2 Bft) 95,74 %
30.10.2017 13:52 11,0 C 15,0 C 9,4 C 71 % 0 lf 1026,4 hPa 0,0 l/m 2 min 0 min 221 W/m 14,6 km/h (3 Bft) 97,87 %
30.10.2017 13:54 11,0 C 15,0 C 9,4 C 71 % 0 lf 1026,3 hPa 0,0 l/m 2 min 0 min 243 W/m 14,6 km/h (3 Bft) 97,83 %
30.10.2017 13:56 11,0 C 14,4 C 9,4 C 72 % 0 lf 1026,4 hPa 0,0 l/m 0 min 0 min 137 W/m 16,7 km/h (3 Bft) 100,00 %
30.10.2017 13:58 11,0 C 15,6 C 9,4 C 72 % 0 lf 1026,3 hPa 0,0 l/m 0 min 0 min 156 W/m 10,5 km/h (2 Bft) 100,00 %
30.10.2017 14:00 11,0 C 17,2 C 10,0 C 72 % 0 lf 1026,4 hPa 0,0 l/m 2 min 0 min 327 W/m 10,5 km/h (2 Bft) 95,65 %
30.10.2017 14:02 11,0 C 17,8 C 10,0 C 72 % 0 lf 1026,4 hPa 0,0 l/m 2 min 0 min 344 W/m 18,8 km/h (3 Bft) 97,92 %
30.10.2017 14:04 11,1 C 18,9 C 10,0 C 72 % 0 lf 1026,3 hPa 0,0 l/m 2 min 0 min 338 W/m 14,6 km/h (3 Bft) 95,74 %
30.10.2017 14:06 11,1 C 18,9 C 10,0 C 71 % 0 lf 1026,4 hPa 0,0 l/m 2 min 0 min 332 W/m 14,6 km/h (3 Bft) 98,18 %
30.10.2017 14:08 11,1 C 19,4 C 10,0 C 71 % 0 lf 1026,3 hPa 0,0 l/m 2 min 0 min 331 W/m 14,6 km/h (3 Bft) 97,37 %
30.10.2017 14:10 11,2 C 20,0 C 10,0 C 71 % 0 lf 1026,3 hPa 0,0 l/m 2 min 0 min 332 W/m 14,6 km/h (3 Bft) 97,87 %
30.10.2017 14:12 11,2 C 19,4 C 10,0 C 70 % 0 lf 1026,3 hPa 0,0 l/m 2 min 0 min 332 W/m 12,6 km/h (3 Bft) 95,74 %
30.10.2017 14:14 11,2 C 19,4 C 10,0 C 71 % 0 lf 1026,3 hPa 0,0 l/m 2 min 0 min 335 W/m 16,7 km/h (3 Bft) 98,18 %
30.10.2017 14:16 11,2 C 17,8 C 10,0 C 70 % 0 lf 1026,2 hPa 0,0 l/m 2 min 0 min 200 W/m 8,4 km/h (2 Bft) 97,37 %
30.10.2017 14:18 11,3 C 17,8 C 10,0 C 70 % 0 lf 1026,2 hPa 0,0 l/m 0 min 0 min 157 W/m 14,6 km/h (3 Bft) 95,74 %
30.10.2017 14:20 11,3 C 17,8 C 10,0 C 71 % 0 lf 1026,2 hPa 0,0 l/m 2 min 0 min 271 W/m 12,6 km/h (3 Bft) 97,87 %
30.10.2017 14:22 11,3 C 18,3 C 10,0 C 70 % 0 lf 1026,3 hPa 0,0 l/m 2 min 0 min 325 W/m 10,5 km/h (2 Bft) 97,87 %
30.10.2017 14:24 11,3 C 16,7 C 10,0 C 70 % 0 lf 1026,3 hPa 0,0 l/m 0 min 0 min 101 W/m 8,4 km/h (2 Bft) 98,18 %
30.10.2017 14:26 11,3 C 16,1 C 10,0 C 70 % 0 lf 1026,3 hPa 0,0 l/m 0 min 0 min 128 W/m 8,4 km/h (2 Bft) 97,37 %
30.10.2017 14:28 11,3 C 15,6 C 10,0 C 70 % 0 lf 1026,3 hPa 0,0 l/m 0 min 0 min 159 W/m 16,7 km/h (3 Bft) 97,92 %
30.10.2017 14:30 11,3 C 14,4 C 9,4 C 70 % 0 lf 1026,3 hPa 0,0 l/m 2 min 0 min 175 W/m 16,7 km/h (3 Bft) 95,65 %
30.10.2017 14:32 11,3 C 13,9 C 9,4 C 70 % 0 lf 1026,4 hPa 0,0 l/m 0 min 0 min 80 W/m 12,6 km/h (3 Bft) 94,64 %
30.10.2017 14:34 11,3 C 12,8 C 9,4 C 70 % 0 lf 1026,3 hPa 0,0 l/m 0 min 0 min 79 W/m 10,5 km/h (2 Bft) 89,47 %
30.10.2017 14:36 11,3 C 13,3 C 9,4 C 71 % 0 lf 1026,3 hPa 0,0 l/m 0 min 0 min 77 W/m 12,6 km/h (3 Bft) 97,87 %
30.10.2017 14:38 11,3 C 12,8 C 8,9 C 71 % 0 lf 1026,3 hPa 0,0 l/m 0 min 0 min 70 W/m 12,6 km/h (3 Bft) 97,87 %
30.10.2017 14:40 11,3 C 12,2 C 8,9 C 71 % 0 lf 1026,3 hPa 0,0 l/m 0 min 0 min 63 W/m 14,6 km/h (3 Bft) 96,36 %
30.10.2017 14:42 11,2 C 12,2 C 8,9 C 71 % 0 lf 1026,3 hPa 0,0 l/m 0 min 0 min 63 W/m 8,4 km/h (2 Bft) 97,87 %
30.10.2017 14:44 11,2 C 11,7 C 8,9 C 71 % 0 lf 1026,2 hPa 0,0 l/m 0 min 0 min 77 W/m 8,4 km/h (2 Bft) 97,37 %
30.10.2017 14:46 11,2 C 12,2 C 8,9 C 71 % 0 lf 1026,2 hPa 0,0 l/m 0 min 0 min 86 W/m 8,4 km/h (2 Bft) 97,87 %
30.10.2017 14:48 11,1 C 12,8 C 8,3 C 71 % 0 lf 1026,3 hPa 0,0 l/m 2 min 0 min 147 W/m 8,4 km/h (2 Bft) 100,00 %
30.10.2017 14:50 11,1 C 13,3 C 8,9 C 71 % 0 lf 1026,2 hPa 0,0 l/m 2 min 0 min 149 W/m 8,4 km/h (2 Bft) 97,87 %
30.10.2017 14:52 11,1 C 15,6 C 8,9 C 72 % 0 lf 1026,2 hPa 0,0 l/m 2 min 0 min 242 W/m 8,4 km/h (2 Bft) 95,65 %
30.10.2017 14:54 11,1 C 16,7 C 9,4 C 72 % 0 lf 1026,2 hPa 0,0 l/m 2 min 0 min 253 W/m 10,5 km/h (2 Bft) 97,87 %
30.10.2017 14:56 11,1 C 17,2 C 9,4 C 72 % 0 lf 1026,2 hPa 0,0 l/m 2 min 0 min 259 W/m 14,6 km/h (3 Bft) 98,18 %
30.10.2017 14:58 11,1 C 17,8 C 10,0 C 72 % 0 lf 1026,2 hPa 0,0 l/m 2 min 0 min 258 W/m 16,7 km/h (3 Bft) 97,37 %
30.10.2017 15:00 11,1 C 17,2 C 10,0 C 72 % 0 lf 1026,3 hPa 0,0 l/m 2 min 0 min 259 W/m 14,6 km/h (3 Bft) 97,92 %
30.10.2017 15:02 11,1 C 17,2 C 10,6 C 72 % 0 lf 1026,3 hPa 0,0 l/m 2 min 0 min 272 W/m 18,8 km/h (3 Bft) 97,87 %
30.10.2017 15:04 11,2 C 17,8 C 10,6 C 72 % 0 lf 1026,3 hPa 0,0 l/m 2 min 0 min 279 W/m 20,9 km/h (4 Bft) 96,36 %
30.10.2017 15:06 11,2 C 18,3 C 10,6 C 72 % 0 lf 1026,3 hPa 0,0 l/m 2 min 0 min 278 W/m 16,7 km/h (3 Bft) 100,00 %
30.10.2017 15:08 11,2 C 18,3 C 10,6 C 72 % 0 lf 1026,3 hPa 0,0 l/m 2 min 0 min 271 W/m 16,7 km/h (3 Bft) 97,87 %
30.10.2017 15:10 11,3 C 18,3 C 10,6 C 71 % 0 lf 1026,4 hPa 0,0 l/m 2 min 0 min 257 W/m 18,8 km/h (3 Bft) 93,62 %
30.10.2017 15:12 11,3 C 17,8 C 10,6 C 71 % 0 lf 1026,4 hPa 0,0 l/m 2 min 0 min 246 W/m 18,8 km/h (3 Bft) 98,18 %
30.10.2017 15:14 11,3 C 17,8 C 10,6 C 70 % 0 lf 1026,3 hPa 0,0 l/m 2 min 0 min 234 W/m 14,6 km/h (3 Bft) 94,74 %
30.10.2017 15:16 11,3 C 16,7 C 10,6 C 70 % 0 lf 1026,3 hPa 0,0 l/m 2 min 0 min 141 W/m 14,6 km/h (3 Bft) 95,74 %
30.10.2017 15:18 11,3 C 15,0 C 10,0 C 69 % 0 lf 1026,3 hPa 0,0 l/m 0 min 0 min 90 W/m 12,6 km/h (3 Bft) 97,87 %
30.10.2017 15:20 11,4 C 13,9 C 10,0 C 70 % 0 lf 1026,3 hPa 0,0 l/m 0 min 0 min 77 W/m 18,8 km/h (3 Bft) 96,36 %
30.10.2017 15:22 11,3 C 12,8 C 9,4 C 70 % 0 lf 1026,3 hPa 0,0 l/m 0 min 0 min 71 W/m 8,4 km/h (2 Bft) 95,74 %
30.10.2017 15:24 11,3 C 12,2 C 9,4 C 70 % 0 lf 1026,3 hPa 0,0 l/m 0 min 0 min 70 W/m 14,6 km/h (3 Bft) 92,11 %
30.10.2017 15:26 11,3 C 11,7 C 9,4 C 71 % 0 lf 1026,3 hPa 0,0 l/m 0 min 0 min 71 W/m 12,6 km/h (3 Bft) 93,75 %
30.10.2017 15:28 11,3 C 11,7 C 8,9 C 71 % 0 lf 1026,3 hPa 0,0 l/m 0 min 0 min 70 W/m 10,5 km/h (2 Bft) 95,65 %
30.10.2017 15:30 11,2 C 11,1 C 8,9 C 71 % 0 lf 1026,3 hPa 0,0 l/m 0 min 0 min 70 W/m 20,9 km/h (4 Bft) 96,43 %
30.10.2017 15:32 11,2 C 11,1 C 8,9 C 72 % 0 lf 1026,3 hPa 0,0 l/m 0 min 0 min 79 W/m 14,6 km/h (3 Bft) 92,11 %
30.10.2017 15:34 11,2 C 11,1 C 8,9 C 72 % 0 lf 1026,3 hPa 0,0 l/m 0 min 0 min 81 W/m 14,6 km/h (3 Bft) 95,74 %
30.10.2017 15:36 11,1 C 11,1 C 8,9 C 72 % 0 lf 1026,3 hPa 0,0 l/m 0 min 0 min 96 W/m 14,6 km/h (3 Bft) 93,62 %
30.10.2017 15:38 11,1 C 11,1 C 9,4 C 72 % 0 lf 1026,4 hPa 0,0 l/m 2 min 0 min 108 W/m 8,4 km/h (2 Bft) 92,73 %
30.10.2017 15:40 11,1 C 11,7 C 9,4 C 72 % 0 lf 1026,3 hPa 0,0 l/m 0 min 0 min 97 W/m 8,4 km/h (2 Bft) 92,11 %
30.10.2017 15:42 11,0 C 11,7 C 9,4 C 72 % 0 lf 1026,3 hPa 0,0 l/m 0 min 0 min 93 W/m 4,2 km/h (1 Bft) 91,49 %
30.10.2017 15:44 11,0 C 11,7 C 9,4 C 73 % 0 lf 1026,3 hPa 0,0 l/m 0 min 0 min 93 W/m 12,6 km/h (3 Bft) 93,62 %
30.10.2017 15:46 10,9 C 11,7 C 9,4 C 73 % 0 lf 1026,3 hPa 0,0 l/m 0 min 0 min 91 W/m 10,5 km/h (2 Bft) 93,62 %
30.10.2017 15:48 10,9 C 11,7 C 9,4 C 73 % 0 lf 1026,3 hPa 0,0 l/m 2 min 0 min 91 W/m 4,2 km/h (1 Bft) 90,91 %
30.10.2017 15:50 10,9 C 11,7 C 9,4 C 73 % 0 lf 1026,3 hPa 0,0 l/m 2 min 0 min 126 W/m 16,7 km/h (3 Bft) 93,62 %
30.10.2017 15:52 10,9 C 11,7 C 9,4 C 73 % 0 lf 1026,3 hPa 0,0 l/m 2 min 0 min 122 W/m 10,5 km/h (2 Bft) 93,62 %
30.10.2017 15:54 10,9 C 11,7 C 9,4 C 73 % 0 lf 1026,3 hPa 0,0 l/m 2 min 0 min 110 W/m 12,6 km/h (3 Bft) 93,62 %
30.10.2017 15:56 10,8 C 11,7 C 9,4 C 73 % 0 lf 1026,3 hPa 0,0 l/m 2 min 0 min 101 W/m 18,8 km/h (3 Bft) 92,11 %
30.10.2017 15:58 10,8 C 11,7 C 8,9 C 73 % 0 lf 1026,3 hPa 0,0 l/m 2 min 0 min 89 W/m 16,7 km/h (3 Bft) 93,62 %
30.10.2017 16:00 10,8 C 11,1 C 8,9 C 73 % 0 lf 1026,3 hPa 0,0 l/m 2 min 0 min 82 W/m 12,6 km/h (3 Bft) 91,49 %
30.10.2017 16:02 10,7 C 11,1 C 8,9 C 72 % 0 lf 1026,3 hPa 0,0 l/m 2 min 0 min 76 W/m 16,7 km/h (3 Bft) 96,36 %
30.10.2017 16:04 10,7 C 10,6 C 8,9 C 72 % 0 lf 1026,3 hPa 0,0 l/m 0 min 0 min 70 W/m 20,9 km/h (4 Bft) 97,37 %
30.10.2017 16:06 10,7 C 10,6 C 8,3 C 72 % 0 lf 1026,3 hPa 0,0 l/m 0 min 0 min 66 W/m 14,6 km/h (3 Bft) 97,87 %
30.10.2017 16:08 10,7 C 10,6 C 8,3 C 72 % 0 lf 1026,2 hPa 0,0 l/m 0 min 0 min 61 W/m 14,6 km/h (3 Bft) 95,74 %
30.10.2017 16:10 10,6 C 10,6 C 8,3 C 72 % 0 lf 1026,3 hPa 0,0 l/m 0 min 0 min 55 W/m 12,6 km/h (3 Bft) 95,74 %
30.10.2017 16:12 10,6 C 10,0 C 8,3 C 72 % 0 lf 1026,3 hPa 0,0 l/m 0 min 0 min 53 W/m 14,6 km/h (3 Bft) 95,74 %
30.10.2017 16:14 10,6 C 10,0 C 8,3 C 73 % 0 lf 1026,3 hPa 0,0 l/m 0 min 0 min 49 W/m 12,6 km/h (3 Bft) 96,36 %
30.10.2017 16:16 10,5 C 10,0 C 7,8 C 73 % 0 lf 1026,3 hPa 0,0 l/m 0 min 0 min 46 W/m 16,7 km/h (3 Bft) 97,37 %
30.10.2017 16:18 10,5 C 10,0 C 7,8 C 73 % 0 lf 1026,3 hPa 0,0 l/m 0 min 0 min 44 W/m 14,6 km/h (3 Bft) 100,00 %
30.10.2017 16:20 10,4 C 10,0 C 7,8 C 73 % 0 lf 1026,3 hPa 0,0 l/m 0 min 0 min 41 W/m 16,7 km/h (3 Bft) 95,74 %
30.10.2017 16:22 10,4 C 10,0 C 7,8 C 73 % 0 lf 1026,4 hPa 0,0 l/m 0 min 0 min 38 W/m 10,5 km/h (2 Bft) 100,00 %
30.10.2017 16:24 10,4 C 10,0 C 7,8 C 73 % 0 lf 1026,4 hPa 0,0 l/m 0 min 0 min 37 W/m 10,5 km/h (2 Bft) 100,00 %
30.10.2017 16:26 10,3 C 9,4 C 7,8 C 73 % 0 lf 1026,4 hPa 0,0 l/m 0 min 0 min 35 W/m 18,8 km/h (3 Bft) 97,87 %
30.10.2017 16:28 10,3 C 9,4 C 7,8 C 73 % 0 lf 1026,5 hPa 0,0 l/m 0 min 0 min 35 W/m 14,6 km/h (3 Bft) 100,00 %
30.10.2017 16:30 10,2 C 9,4 C 7,8 C 74 % 0 lf 1026,5 hPa 0,0 l/m 0 min 0 min 34 W/m 14,6 km/h (3 Bft) 97,87 %
30.10.2017 16:32 10,2 C 9,4 C 7,8 C 74 % 0 lf 1026,5 hPa 0,0 l/m 0 min 0 min 32 W/m 12,6 km/h (3 Bft) 98,18 %
30.10.2017 16:34 10,2 C 9,4 C 7,8 C 74 % 0 lf 1026,6 hPa 0,0 l/m 0 min 0 min 30 W/m 12,6 km/h (3 Bft) 100,00 %
30.10.2017 16:36 10,1 C 9,4 C 7,2 C 74 % 0 lf 1026,5 hPa 0,0 l/m 0 min 0 min 29 W/m 10,5 km/h (2 Bft) 97,92 %
30.10.2017 16:38 10,1 C 9,4 C 7,2 C 74 % 0 lf 1026,5 hPa 0,0 l/m 0 min 0 min 28 W/m 12,6 km/h (3 Bft) 97,83 %
30.10.2017 16:40 10,1 C 8,9 C 7,2 C 74 % 0 lf 1026,5 hPa 0,0 l/m 0 min 0 min 27 W/m 8,4 km/h (2 Bft) 96,43 %
30.10.2017 16:42 10,1 C 8,9 C 7,2 C 74 % 0 lf 1026,5 hPa 0,0 l/m 0 min 0 min 25 W/m 6,3 km/h (2 Bft) 97,37 %
30.10.2017 16:44 10,0 C 8,9 C 6,7 C 74 % 0 lf 1026,7 hPa 0,0 l/m 0 min 0 min 25 W/m 6,3 km/h (2 Bft) 97,87 %
30.10.2017 16:46 10,0 C 8,9 C 6,7 C 74 % 0 lf 1026,7 hPa 0,0 l/m 2 min 0 min 25 W/m 6,3 km/h (2 Bft) 97,87 %
30.10.2017 16:48 9,9 C 8,3 C 6,7 C 74 % 0 lf 1026,7 hPa 0,0 l/m 2 min 0 min 22 W/m 4,2 km/h (1 Bft) 96,36 %
30.10.2017 16:50 9,9 C 8,3 C 6,7 C 74 % 0 lf 1026,7 hPa 0,0 l/m 0 min 0 min 19 W/m 6,3 km/h (2 Bft) 97,37 %
30.10.2017 16:52 9,9 C 8,3 C 6,1 C 74 % 0 lf 1026,6 hPa 0,0 l/m 0 min 0 min 15 W/m 6,3 km/h (2 Bft) 95,74 %
30.10.2017 16:54 9,8 C 8,3 C 6,1 C 75 % 0 lf 1026,6 hPa 0,0 l/m 0 min 0 min 12 W/m 6,3 km/h (2 Bft) 97,87 %
30.10.2017 16:56 9,8 C 8,3 C 6,1 C 75 % 0 lf 1026,7 hPa 0,0 l/m 0 min 0 min 12 W/m 6,3 km/h (2 Bft) 98,18 %
30.10.2017 16:58 9,8 C 7,8 C 5,6 C 75 % 0 lf 1026,7 hPa 0,0 l/m 0 min 0 min 10 W/m 8,4 km/h (2 Bft) 97,37 %
30.10.2017 17:00 9,7 C 7,8 C 5,6 C 75 % 0 lf 1026,8 hPa 0,0 l/m 0 min 0 min 9 W/m 8,4 km/h (2 Bft) 93,75 %
30.10.2017 17:02 9,7 C 7,8 C 5,6 C 75 % 0 lf 1026,7 hPa 0,0 l/m 0 min 0 min 7 W/m 8,4 km/h (2 Bft) 97,83 %
30.10.2017 17:04 9,6 C 7,8 C 5,6 C 75 % 0 lf 1026,7 hPa 0,0 l/m 0 min 0 min 7 W/m 6,3 km/h (2 Bft) 98,18 %
30.10.2017 17:06 9,6 C 7,2 C 5,6 C 75 % 0 lf 1026,8 hPa 0,0 l/m 0 min 0 min 6 W/m 6,3 km/h (2 Bft) 94,87 %
30.10.2017 17:08 9,5 C 7,2 C 5,0 C 75 % 0 lf 1026,7 hPa 0,0 l/m 0 min 0 min 5 W/m 2,1 km/h (1 Bft) 97,87 %
30.10.2017 17:10 9,4 C 7,2 C 5,0 C 75 % 0 lf 1026,8 hPa 0,0 l/m 0 min 0 min 5 W/m 6,3 km/h (2 Bft) 100,00 %
30.10.2017 17:12 9,4 C 7,2 C 5,0 C 75 % 0 lf 1026,8 hPa 0,0 l/m 0 min 0 min 5 W/m 6,3 km/h (2 Bft) 98,18 %
30.10.2017 17:14 9,3 C 6,7 C 5,0 C 75 % 0 lf 1026,8 hPa 0,0 l/m 0 min 0 min 3 W/m 4,2 km/h (1 Bft) 97,37 %
30.10.2017 17:16 9,3 C 6,7 C 5,0 C 75 % 0 lf 1026,8 hPa 0,0 l/m 0 min 0 min 0 W/m 4,2 km/h (1 Bft) 100,00 %
30.10.2017 17:18 9,2 C 6,7 C 5,0 C 75 % 0 lf 1026,8 hPa 0,0 l/m 0 min 0 min 0 W/m 4,2 km/h (1 Bft) 100,00 %
30.10.2017 17:20 9,2 C 6,7 C 5,0 C 76 % 0 lf 1026,8 hPa 0,0 l/m 0 min 0 min 0 W/m 4,2 km/h (1 Bft) 100,00 %
30.10.2017 17:22 9,1 C 6,7 C 5,0 C 76 % 0 lf 1026,8 hPa 0,0 l/m 0 min 0 min 0 W/m 4,2 km/h (1 Bft) 100,00 %
30.10.2017 17:24 9,1 C 6,7 C 5,0 C 76 % 0 lf 1026,8 hPa 0,0 l/m 0 min 0 min 0 W/m 4,2 km/h (1 Bft) 100,00 %
30.10.2017 17:26 8,9 C 6,7 C 5,0 C 76 % 0 lf 1026,8 hPa 0,0 l/m 0 min 0 min 0 W/m 4,2 km/h (1 Bft) 97,87 %
30.10.2017 17:28 8,9 C 6,7 C 5,0 C 76 % 0 lf 1026,8 hPa 0,0 l/m 0 min 0 min 0 W/m 4,2 km/h (1 Bft) 100,00 %
30.10.2017 17:30 8,8 C 6,7 C 5,0 C 76 % 0 lf 1026,8 hPa 0,0 l/m 0 min 0 min 0 W/m 4,2 km/h (1 Bft) 100,00 %
30.10.2017 17:32 8,8 C 6,7 C 5,0 C 77 % 0 lf 1026,8 hPa 0,0 l/m 0 min 0 min 0 W/m 4,2 km/h (1 Bft) 97,37 %
30.10.2017 17:34 8,7 C 6,7 C 5,0 C 77 % 0 lf 1026,9 hPa 0,0 l/m 0 min 0 min 0 W/m 4,2 km/h (1 Bft) 100,00 %
30.10.2017 17:36 8,7 C 6,7 C 5,0 C 77 % 0 lf 1026,9 hPa 0,0 l/m 0 min 0 min 0 W/m 2,1 km/h (1 Bft) 100,00 %
30.10.2017 17:38 8,7 C 6,7 C 5,0 C 77 % 0 lf 1026,9 hPa 0,0 l/m 0 min 0 min 0 W/m 6,3 km/h (2 Bft) 100,00 %
30.10.2017 17:40 8,6 C 6,7 C 5,0 C 77 % 0 lf 1026,9 hPa 0,0 l/m 0 min 0 min 0 W/m 4,2 km/h (1 Bft) 100,00 %
30.10.2017 17:42 8,6 C 6,7 C 5,0 C 78 % 0 lf 1026,9 hPa 0,0 l/m 0 min 0 min 0 W/m 6,3 km/h (2 Bft) 100,00 %
30.10.2017 17:44 8,5 C 6,7 C 5,0 C 78 % 0 lf 1026,9 hPa 0,0 l/m 0 min 0 min 0 W/m 4,2 km/h (1 Bft) 100,00 %
30.10.2017 17:46 8,4 C 6,7 C 5,0 C 78 % 0 lf 1026,9 hPa 0,0 l/m 0 min 0 min 0 W/m 4,2 km/h (1 Bft) 97,87 %
30.10.2017 17:48 8,4 C 6,7 C 5,0 C 78 % 0 lf 1026,9 hPa 0,0 l/m 0 min 0 min 0 W/m 4,2 km/h (1 Bft) 98,18 %
30.10.2017 17:50 8,4 C 6,7 C 5,0 C 78 % 0 lf 1026,9 hPa 0,0 l/m 0 min 0 min 0 W/m 2,1 km/h (1 Bft) 100,00 %
30.10.2017 17:52 8,3 C 6,1 C 4,4 C 78 % 0 lf 1026,9 hPa 0,0 l/m 0 min 0 min 0 W/m 0,0 km/h (0 Bft) 100,00 %
30.10.2017 17:54 8,3 C 6,1 C 4,4 C 78 % 0 lf 1026,9 hPa 0,0 l/m 0 min 0 min 0 W/m 2,1 km/h (1 Bft) 100,00 %
30.10.2017 17:56 8,2 C 6,1 C 4,4 C 78 % 0 lf 1026,9 hPa 0,0 l/m 0 min 0 min 0 W/m 2,1 km/h (1 Bft) 97,87 %
30.10.2017 17:58 8,2 C 6,1 C 4,4 C 78 % 0 lf 1026,9 hPa 0,0 l/m 0 min 0 min 0 W/m 2,1 km/h (1 Bft) 100,00 %
30.10.2017 18:00 8,1 C 5,6 C 4,4 C 79 % 0 lf 1026,9 hPa 0,0 l/m 0 min 0 min 0 W/m 2,1 km/h (1 Bft) 97,37 %
30.10.2017 18:02 8,1 C 5,6 C 3,9 C 79 % 0 lf 1027,0 hPa 0,0 l/m 0 min 0 min 0 W/m 2,1 km/h (1 Bft) 97,87 %
30.10.2017 18:04 8,0 C 5,6 C 3,9 C 79 % 0 lf 1026,9 hPa 0,0 l/m 0 min 0 min 0 W/m 4,2 km/h (1 Bft) 97,87 %
30.10.2017 18:06 8,0 C 5,6 C 3,9 C 79 % 0 lf 1026,9 hPa 0,0 l/m 0 min 0 min 0 W/m 4,2 km/h (1 Bft) 98,18 %
30.10.2017 18:10 7,9 C 5,6 C 3,9 C 80 % 0 lf 1027,0 hPa 0,0 l/m 0 min 0 min 0 W/m 2,1 km/h (1 Bft) 97,67 %
30.10.2017 18:12 7,8 C 5,0 C 3,9 C 80 % 0 lf 1026,9 hPa 0,0 l/m 0 min 0 min 0 W/m 4,2 km/h (1 Bft) 95,65 %
30.10.2017 18:14 7,8 C 5,0 C 3,9 C 80 % 0 lf 1026,9 hPa 0,0 l/m 0 min 0 min 0 W/m 2,1 km/h (1 Bft) 97,87 %
30.10.2017 18:16 7,7 C 5,0 C 3,3 C 80 % 0 lf 1026,9 hPa 0,0 l/m 0 min 0 min 0 W/m 0,0 km/h (0 Bft) 94,55 %
30.10.2017 18:18 7,7 C 5,0 C 3,3 C 80 % 0 lf 1027,0 hPa 0,0 l/m 0 min 0 min 0 W/m 2,1 km/h (1 Bft) 97,37 %
30.10.2017 18:20 7,6 C 5,0 C 3,3 C 80 % 0 lf 1027,0 hPa 0,0 l/m 0 min 0 min 0 W/m 4,2 km/h (1 Bft) 97,92 %
30.10.2017 18:22 7,6 C 5,0 C 3,3 C 81 % 1 lf 1026,9 hPa 0,0 l/m 0 min 0 min 0 W/m 4,2 km/h (1 Bft) 97,83 %
30.10.2017 18:24 7,5 C 5,0 C 3,3 C 81 % 1 lf 1026,9 hPa 0,0 l/m 0 min 0 min 0 W/m 4,2 km/h (1 Bft) 97,87 %
30.10.2017 18:26 7,4 C 5,0 C 3,3 C 81 % 1 lf 1026,9 hPa 0,0 l/m 0 min 0 min 0 W/m 2,1 km/h (1 Bft) 96,36 %
30.10.2017 18:28 7,4 C 5,0 C 3,3 C 81 % 1 lf 1026,9 hPa 0,0 l/m 0 min 0 min 0 W/m 6,3 km/h (2 Bft) 94,87 %
30.10.2017 18:30 7,4 C 5,0 C 3,3 C 81 % 1 lf 1026,9 hPa 0,0 l/m 0 min 0 min 0 W/m 8,4 km/h (2 Bft) 95,74 %
30.10.2017 18:32 7,3 C 5,0 C 3,3 C 81 % 1 lf 1026,9 hPa 0,0 l/m 0 min 0 min 0 W/m 8,4 km/h (2 Bft) 93,62 %
30.10.2017 18:34 7,2 C 4,4 C 3,3 C 81 % 1 lf 1026,9 hPa 0,0 l/m 0 min 0 min 0 W/m 6,3 km/h (2 Bft) 92,73 %
30.10.2017 18:36 7,2 C 5,0 C 3,3 C 82 % 1 lf 1026,9 hPa 0,0 l/m 0 min 0 min 0 W/m 8,4 km/h (2 Bft) 89,47 %
30.10.2017 18:38 7,2 C 5,0 C 3,3 C 82 % 1 lf 1026,9 hPa 0,0 l/m 0 min 0 min 0 W/m 10,5 km/h (2 Bft) 93,62 %
30.10.2017 18:40 7,1 C 5,0 C 3,3 C 81 % 1 lf 1027,0 hPa 0,0 l/m 0 min 0 min 0 W/m 8,4 km/h (2 Bft) 93,62 %
30.10.2017 18:42 7,1 C 5,0 C 3,3 C 82 % 1 lf 1027,0 hPa 0,0 l/m 0 min 0 min 0 W/m 8,4 km/h (2 Bft) 95,74 %
30.10.2017 18:44 7,0 C 5,0 C 3,3 C 82 % 1 lf 1027,0 hPa 0,0 l/m 0 min 0 min 0 W/m 10,5 km/h (2 Bft) 94,55 %
30.10.2017 18:46 6,9 C 5,0 C 3,3 C 82 % 1 lf 1026,9 hPa 0,0 l/m 0 min 0 min 0 W/m 8,4 km/h (2 Bft) 97,37 %
30.10.2017 18:48 6,9 C 5,0 C 3,3 C 82 % 1 lf 1027,0 hPa 0,0 l/m 0 min 0 min 0 W/m 4,2 km/h (1 Bft) 95,74 %
30.10.2017 18:50 6,9 C 5,0 C 3,3 C 82 % 1 lf 1027,0 hPa 0,0 l/m 0 min 0 min 0 W/m 6,3 km/h (2 Bft) 95,74 %
30.10.2017 18:52 6,8 C 4,4 C 3,3 C 82 % 1 lf 1026,9 hPa 0,0 l/m 0 min 0 min 0 W/m 6,3 km/h (2 Bft) 93,62 %
30.10.2017 18:54 6,8 C 4,4 C 3,3 C 82 % 1 lf 1027,0 hPa 0,0 l/m 0 min 0 min 0 W/m 4,2 km/h (1 Bft) 96,36 %
30.10.2017 18:56 6,8 C 4,4 C 3,3 C 82 % 1 lf 1027,0 hPa 0,0 l/m 0 min 0 min 0 W/m 6,3 km/h (2 Bft) 97,37 %
30.10.2017 18:58 6,7 C 4,4 C 3,3 C 82 % 1 lf 1027,0 hPa 0,0 l/m 0 min 0 min 0 W/m 2,1 km/h (1 Bft) 97,87 %
30.10.2017 19:00 6,7 C 4,4 C 3,3 C 82 % 1 lf 1027,0 hPa 0,0 l/m 0 min 0 min 0 W/m 2,1 km/h (1 Bft) 97,87 %
30.10.2017 19:02 6,6 C 4,4 C 3,3 C 82 % 1 lf 1027,0 hPa 0,0 l/m 0 min 0 min 0 W/m 0,0 km/h (0 Bft) 96,36 %
30.10.2017 19:04 6,6 C 4,4 C 3,3 C 82 % 1 lf 1027,0 hPa 0,0 l/m 0 min 0 min 0 W/m 0,0 km/h (0 Bft) 95,74 %
30.10.2017 19:06 6,6 C 5,0 C 3,3 C 82 % 1 lf 1027,0 hPa 0,0 l/m 0 min 0 min 0 W/m 2,1 km/h (1 Bft) 84,21 %
30.10.2017 19:08 6,5 C 4,4 C 3,3 C 82 % 1 lf 1027,1 hPa 0,0 l/m 0 min 0 min 0 W/m 4,2 km/h (1 Bft) 97,87 %
30.10.2017 19:10 6,5 C 5,0 C 3,9 C 82 % 1 lf 1027,0 hPa 0,0 l/m 0 min 0 min 0 W/m 4,2 km/h (1 Bft) 97,87 %
30.10.2017 19:12 6,4 C 5,0 C 3,9 C 82 % 1 lf 1027,1 hPa 0,0 l/m 0 min 0 min 0 W/m 2,1 km/h (1 Bft) 96,43 %
30.10.2017 19:14 6,4 C 5,0 C 3,9 C 82 % 1 lf 1027,1 hPa 0,0 l/m 0 min 0 min 0 W/m 0,0 km/h (0 Bft) 97,37 %
30.10.2017 19:16 6,4 C 5,0 C 3,9 C 83 % 1 lf 1027,1 hPa 0,0 l/m 0 min 0 min 0 W/m 2,1 km/h (1 Bft) 95,74 %
30.10.2017 19:18 6,4 C 5,0 C 3,9 C 83 % 1 lf 1027,1 hPa 0,0 l/m 0 min 0 min 0 W/m 2,1 km/h (1 Bft) 93,62 %
30.10.2017 19:20 6,3 C 5,0 C 3,9 C 83 % 1 lf 1027,1 hPa 0,0 l/m 0 min 0 min 0 W/m 0,0 km/h (0 Bft) 94,55 %
30.10.2017 19:22 6,3 C 5,0 C 3,9 C 83 % 1 lf 1027,1 hPa 0,0 l/m 0 min 0 min 0 W/m 0,0 km/h (0 Bft) 95,74 %
30.10.2017 19:24 6,3 C 5,0 C 3,9 C 83 % 1 lf 1027,1 hPa 0,0 l/m 0 min 0 min 0 W/m 0,0 km/h (0 Bft) 92,11 %
30.10.2017 19:26 6,2 C 5,0 C 3,9 C 83 % 1 lf 1027,2 hPa 0,0 l/m 0 min 0 min 0 W/m 4,2 km/h (1 Bft) 95,83 %
30.10.2017 19:28 6,2 C 5,0 C 3,9 C 83 % 1 lf 1027,1 hPa 0,0 l/m 0 min 0 min 0 W/m 4,2 km/h (1 Bft) 95,83 %
30.10.2017 19:30 6,2 C 5,0 C 3,9 C 83 % 1 lf 1027,1 hPa 0,0 l/m 0 min 0 min 0 W/m 4,2 km/h (1 Bft) 93,62 %
30.10.2017 19:32 6,2 C 5,0 C 3,9 C 83 % 1 lf 1027,1 hPa 0,0 l/m 0 min 0 min 0 W/m 4,2 km/h (1 Bft) 95,65 %
30.10.2017 19:34 6,2 C 5,0 C 3,9 C 84 % 1 lf 1027,1 hPa 0,0 l/m 0 min 0 min 0 W/m 4,2 km/h (1 Bft) 95,74 %
30.10.2017 19:36 6,1 C 5,0 C 3,9 C 84 % 1 lf 1027,2 hPa 0,0 l/m 0 min 0 min 0 W/m 4,2 km/h (1 Bft) 95,74 %
30.10.2017 19:38 6,1 C 5,0 C 4,4 C 84 % 1 lf 1027,1 hPa 0,0 l/m 0 min 0 min 0 W/m 2,1 km/h (1 Bft) 97,87 %
30.10.2017 19:40 6,1 C 5,6 C 4,4 C 84 % 0 lf 1027,1 hPa 0,0 l/m 0 min 0 min 0 W/m 6,3 km/h (2 Bft) 95,74 %
30.10.2017 19:42 6,1 C 5,6 C 4,4 C 84 % 0 lf 1027,2 hPa 0,0 l/m 0 min 0 min 0 W/m 4,2 km/h (1 Bft) 95,74 %
30.10.2017 19:44 6,1 C 5,6 C 4,4 C 85 % 0 lf 1027,2 hPa 0,0 l/m 0 min 0 min 0 W/m 4,2 km/h (1 Bft) 95,65 %
30.10.2017 19:46 6,1 C 5,6 C 4,4 C 85 % 0 lf 1027,2 hPa 0,0 l/m 0 min 0 min 0 W/m 6,3 km/h (2 Bft) 97,87 %
30.10.2017 19:48 6,1 C 5,6 C 4,4 C 85 % 0 lf 1027,2 hPa 0,0 l/m 0 min 0 min 0 W/m 6,3 km/h (2 Bft) 97,87 %
30.10.2017 19:50 6,1 C 5,6 C 4,4 C 86 % 0 lf 1027,3 hPa 0,0 l/m 0 min 0 min 0 W/m 6,3 km/h (2 Bft) 97,87 %
30.10.2017 19:52 6,1 C 5,6 C 4,4 C 86 % 0 lf 1027,3 hPa 0,0 l/m 0 min 0 min 0 W/m 6,3 km/h (2 Bft) 95,74 %
30.10.2017 19:54 6,1 C 5,6 C 4,4 C 86 % 0 lf 1027,3 hPa 0,0 l/m 0 min 0 min 0 W/m 8,4 km/h (2 Bft) 97,87 %
30.10.2017 19:56 6,1 C 6,1 C 5,0 C 86 % 0 lf 1027,3 hPa 0,0 l/m 0 min 0 min 0 W/m 6,3 km/h (2 Bft) 97,83 %
30.10.2017 19:58 6,1 C 6,1 C 5,0 C 86 % 0 lf 1027,3 hPa 0,0 l/m 0 min 0 min 0 W/m 4,2 km/h (1 Bft) 95,74 %
30.10.2017 20:00 6,1 C 6,1 C 5,0 C 87 % 0 lf 1027,4 hPa 0,0 l/m 0 min 0 min 0 W/m 6,3 km/h (2 Bft) 97,87 %
30.10.2017 20:02 6,1 C 6,1 C 5,0 C 87 % 0 lf 1027,4 hPa 0,0 l/m 0 min 0 min 0 W/m 6,3 km/h (2 Bft) 97,87 %
30.10.2017 20:04 6,1 C 6,1 C 5,0 C 87 % 0 lf 1027,4 hPa 0,0 l/m 0 min 0 min 0 W/m 6,3 km/h (2 Bft) 95,74 %
30.10.2017 20:06 6,2 C 6,1 C 5,0 C 87 % 0 lf 1027,4 hPa 0,0 l/m 0 min 0 min 0 W/m 6,3 km/h (2 Bft) 95,74 %
30.10.2017 20:08 6,2 C 6,1 C 5,0 C 87 % 1 lf 1027,4 hPa 0,0 l/m 0 min 0 min 0 W/m 4,2 km/h (1 Bft) 97,83 %
30.10.2017 20:10 6,2 C 6,1 C 4,4 C 88 % 1 lf 1027,4 hPa 0,0 l/m 0 min 0 min 0 W/m 8,4 km/h (2 Bft) 95,74 %
30.10.2017 20:12 6,2 C 6,1 C 4,4 C 88 % 1 lf 1027,5 hPa 0,0 l/m 0 min 0 min 0 W/m 8,4 km/h (2 Bft) 95,74 %
30.10.2017 20:14 6,2 C 6,1 C 4,4 C 88 % 1 lf 1027,5 hPa 0,0 l/m 0 min 0 min 0 W/m 6,3 km/h (2 Bft) 93,62 %
30.10.2017 20:16 6,2 C 5,6 C 4,4 C 88 % 1 lf 1027,5 hPa 0,0 l/m 0 min 0 min 0 W/m 6,3 km/h (2 Bft) 95,74 %
30.10.2017 20:18 6,2 C 5,6 C 4,4 C 88 % 1 lf 1027,5 hPa 0,0 l/m 0 min 0 min 0 W/m 6,3 km/h (2 Bft) 95,74 %
30.10.2017 20:20 6,2 C 5,6 C 3,9 C 88 % 1 lf 1027,5 hPa 0,0 l/m 0 min 0 min 0 W/m 8,4 km/h (2 Bft) 95,65 %
30.10.2017 20:22 6,2 C 5,6 C 3,9 C 88 % 1 lf 1027,5 hPa 0,0 l/m 0 min 0 min 0 W/m 4,2 km/h (1 Bft) 93,62 %
30.10.2017 20:24 6,2 C 5,6 C 3,9 C 88 % 1 lf 1027,4 hPa 0,0 l/m 0 min 0 min 0 W/m 4,2 km/h (1 Bft) 93,62 %
30.10.2017 20:26 6,2 C 5,6 C 3,9 C 88 % 1 lf 1027,4 hPa 0,0 l/m 0 min 0 min 0 W/m 2,1 km/h (1 Bft) 91,49 %
30.10.2017 20:28 6,2 C 5,0 C 3,9 C 89 % 1 lf 1027,4 hPa 0,0 l/m 0 min 0 min 0 W/m 2,1 km/h (1 Bft) 91,49 %
30.10.2017 20:30 6,2 C 5,0 C 3,9 C 89 % 1 lf 1027,5 hPa 0,0 l/m 0 min 0 min 0 W/m 2,1 km/h (1 Bft) 93,62 %
30.10.2017 20:32 6,2 C 5,0 C 3,3 C 89 % 1 lf 1027,4 hPa 0,0 l/m 0 min 0 min 0 W/m 0,0 km/h (0 Bft) 91,30 %
30.10.2017 20:34 6,2 C 5,0 C 3,3 C 89 % 1 lf 1027,5 hPa 0,0 l/m 0 min 0 min 0 W/m 0,0 km/h (0 Bft) 93,62 %
30.10.2017 20:36 6,2 C 5,0 C 3,3 C 89 % 1 lf 1027,4 hPa 0,0 l/m 0 min 0 min 0 W/m 0,0 km/h (0 Bft) 95,74 %
30.10.2017 20:38 6,2 C 5,0 C 3,3 C 89 % 1 lf 1027,4 hPa 0,0 l/m 0 min 0 min 0 W/m 0,0 km/h (0 Bft) 97,87 %
30.10.2017 20:40 6,2 C 4,4 C 3,3 C 89 % 1 lf 1027,4 hPa 0,0 l/m 0 min 0 min 0 W/m 0,0 km/h (0 Bft) 95,74 %
30.10.2017 20:42 6,2 C 4,4 C 3,3 C 88 % 1 lf 1027,4 hPa 0,0 l/m 0 min 0 min 0 W/m 0,0 km/h (0 Bft) 93,48 %
30.10.2017 20:44 6,2 C 4,4 C 3,3 C 88 % 1 lf 1027,5 hPa 0,0 l/m 0 min 0 min 0 W/m 0,0 km/h (0 Bft) 97,87 %
30.10.2017 20:46 6,1 C 4,4 C 3,3 C 88 % 1 lf 1027,4 hPa 0,0 l/m 0 min 0 min 0 W/m 0,0 km/h (0 Bft) 97,87 %
30.10.2017 20:48 6,1 C 4,4 C 3,3 C 88 % 1 lf 1027,5 hPa 0,0 l/m 0 min 0 min 0 W/m 0,0 km/h (0 Bft) 97,87 %
30.10.2017 20:50 6,1 C 4,4 C 3,3 C 88 % 1 lf 1027,5 hPa 0,0 l/m 0 min 0 min 0 W/m 0,0 km/h (0 Bft) 95,74 %
30.10.2017 20:52 6,1 C 4,4 C 3,3 C 88 % 2 lf 1027,5 hPa 0,0 l/m 0 min 0 min 0 W/m 0,0 km/h (0 Bft) 93,62 %
30.10.2017 20:54 6,1 C 4,4 C 3,3 C 88 % 2 lf 1027,5 hPa 0,0 l/m 0 min 0 min 0 W/m 0,0 km/h (0 Bft) 97,83 %
30.10.2017 20:56 6,0 C 4,4 C 3,3 C 88 % 2 lf 1027,5 hPa 0,0 l/m 0 min 0 min 0 W/m 0,0 km/h (0 Bft) 97,87 %
30.10.2017 20:58 6,0 C 4,4 C 3,3 C 88 % 2 lf 1027,5 hPa 0,0 l/m 0 min 0 min 0 W/m 0,0 km/h (0 Bft) 95,74 %
30.10.2017 21:00 5,9 C 4,4 C 2,8 C 88 % 2 lf 1027,5 hPa 0,0 l/m 0 min 0 min 0 W/m 0,0 km/h (0 Bft) 95,74 %
30.10.2017 21:02 5,9 C 4,4 C 2,8 C 88 % 2 lf 1027,5 hPa 0,0 l/m 0 min 0 min 0 W/m 0,0 km/h (0 Bft) 97,87 %
30.10.2017 21:04 5,9 C 4,4 C 2,8 C 88 % 2 lf 1027,4 hPa 0,0 l/m 0 min 0 min 0 W/m 0,0 km/h (0 Bft) 97,87 %
30.10.2017 21:06 5,9 C 4,4 C 2,8 C 88 % 2 lf 1027,4 hPa 0,0 l/m 0 min 0 min 0 W/m 2,1 km/h (1 Bft) 95,65 %
30.10.2017 21:08 5,9 C 4,4 C 2,8 C 88 % 2 lf 1027,4 hPa 0,0 l/m 0 min 0 min 0 W/m 6,3 km/h (2 Bft) 100,00 %
30.10.2017 21:10 5,8 C 4,4 C 2,8 C 88 % 3 lf 1027,5 hPa 0,0 l/m 0 min 0 min 0 W/m 4,2 km/h (1 Bft) 97,87 %
30.10.2017 21:12 5,8 C 4,4 C 2,8 C 88 % 3 lf 1027,5 hPa 0,0 l/m 0 min 0 min 0 W/m 4,2 km/h (1 Bft) 100,00 %
30.10.2017 21:14 5,7 C 4,4 C 2,8 C 88 % 3 lf 1027,5 hPa 0,0 l/m 0 min 0 min 0 W/m 6,3 km/h (2 Bft) 100,00 %
30.10.2017 21:16 5,7 C 3,9 C 2,8 C 88 % 3 lf 1027,6 hPa 0,0 l/m 0 min 0 min 0 W/m 8,4 km/h (2 Bft) 100,00 %
30.10.2017 21:18 5,7 C 3,9 C 2,8 C 88 % 3 lf 1027,5 hPa 0,0 l/m 0 min 0 min 0 W/m 6,3 km/h (2 Bft) 100,00 %
30.10.2017 21:20 5,7 C 3,9 C 2,8 C 88 % 3 lf 1027,6 hPa 0,0 l/m 0 min 0 min 0 W/m 4,2 km/h (1 Bft) 100,00 %
30.10.2017 21:22 5,7 C 3,9 C 2,8 C 88 % 3 lf 1027,6 hPa 0,0 l/m 0 min 0 min 0 W/m 6,3 km/h (2 Bft) 97,87 %
30.10.2017 21:24 5,6 C 3,9 C 2,8 C 88 % 3 lf 1027,6 hPa 0,0 l/m 0 min 0 min 0 W/m 4,2 km/h (1 Bft) 100,00 %
30.10.2017 21:26 5,6 C 3,9 C 2,8 C 88 % 3 lf 1027,7 hPa 0,0 l/m 0 min 0 min 0 W/m 6,3 km/h (2 Bft) 97,87 %
30.10.2017 21:28 5,6 C 3,9 C 2,8 C 88 % 3 lf 1027,7 hPa 0,0 l/m 0 min 0 min 0 W/m 4,2 km/h (1 Bft) 100,00 %
30.10.2017 21:30 5,5 C 3,9 C 2,8 C 88 % 3 lf 1027,7 hPa 0,0 l/m 0 min 0 min 0 W/m 6,3 km/h (2 Bft) 100,00 %
30.10.2017 21:32 5,5 C 3,9 C 2,8 C 88 % 3 lf 1027,7 hPa 0,0 l/m 0 min 0 min 0 W/m 4,2 km/h (1 Bft) 97,87 %
30.10.2017 21:34 5,5 C 3,9 C 2,8 C 88 % 3 lf 1027,6 hPa 0,0 l/m 0 min 0 min 0 W/m 6,3 km/h (2 Bft) 100,00 %
30.10.2017 21:36 5,4 C 3,9 C 2,8 C 88 % 4 lf 1027,7 hPa 0,0 l/m 0 min 0 min 0 W/m 6,3 km/h (2 Bft) 100,00 %
30.10.2017 21:38 5,4 C 3,9 C 2,2 C 88 % 4 lf 1027,7 hPa 0,0 l/m 0 min 0 min 0 W/m 6,3 km/h (2 Bft) 97,87 %
30.10.2017 21:40 5,4 C 3,9 C 2,2 C 88 % 4 lf 1027,7 hPa 0,0 l/m 0 min 0 min 0 W/m 6,3 km/h (2 Bft) 97,83 %
30.10.2017 21:42 5,4 C 3,9 C 2,2 C 88 % 4 lf 1027,7 hPa 0,0 l/m 0 min 0 min 0 W/m 4,2 km/h (1 Bft) 100,00 %
30.10.2017 21:44 5,3 C 3,9 C 2,8 C 89 % 4 lf 1027,8 hPa 0,0 l/m 0 min 0 min 0 W/m 4,2 km/h (1 Bft) 100,00 %
30.10.2017 21:46 5,3 C 3,9 C 2,8 C 89 % 4 lf 1027,8 hPa 0,0 l/m 0 min 0 min 0 W/m 4,2 km/h (1 Bft) 100,00 %
30.10.2017 21:48 5,3 C 3,9 C 2,8 C 89 % 3 lf 1027,9 hPa 0,0 l/m 0 min 0 min 0 W/m 4,2 km/h (1 Bft) 100,00 %
30.10.2017 21:50 5,3 C 3,9 C 2,8 C 89 % 4 lf 1027,9 hPa 0,0 l/m 0 min 0 min 0 W/m 4,2 km/h (1 Bft) 97,87 %
30.10.2017 21:52 5,3 C 3,9 C 2,2 C 89 % 4 lf 1027,8 hPa 0,0 l/m 0 min 0 min 0 W/m 4,2 km/h (1 Bft) 96,30 %
30.10.2017 21:54 5,2 C 3,3 C 2,2 C 89 % 4 lf 1027,8 hPa 0,0 l/m 0 min 0 min 0 W/m 4,2 km/h (1 Bft) 95,74 %
30.10.2017 21:56 5,2 C 3,3 C 2,2 C 89 % 4 lf 1027,9 hPa 0,0 l/m 0 min 0 min 0 W/m 4,2 km/h (1 Bft) 91,49 %
30.10.2017 21:58 5,2 C 3,3 C 2,2 C 89 % 4 lf 1027,8 hPa 0,0 l/m 0 min 0 min 0 W/m 6,3 km/h (2 Bft) 95,74 %
30.10.2017 22:00 5,2 C 3,3 C 2,2 C 89 % 4 lf 1027,8 hPa 0,0 l/m 0 min 0 min 0 W/m 4,2 km/h (1 Bft) 95,74 %
30.10.2017 22:02 5,2 C 3,3 C 2,2 C 89 % 4 lf 1027,8 hPa 0,0 l/m 0 min 0 min 0 W/m 4,2 km/h (1 Bft) 95,65 %
30.10.2017 22:04 5,1 C 3,3 C 2,2 C 89 % 4 lf 1027,8 hPa 0,0 l/m 0 min 0 min 0 W/m 4,2 km/h (1 Bft) 95,74 %
30.10.2017 22:06 5,1 C 3,9 C 2,2 C 89 % 4 lf 1027,9 hPa 0,0 l/m 0 min 0 min 0 W/m 4,2 km/h (1 Bft) 95,74 %
30.10.2017 22:08 5,1 C 3,9 C 2,2 C 89 % 4 lf 1027,9 hPa 0,0 l/m 0 min 0 min 0 W/m 2,1 km/h (1 Bft) 93,62 %
30.10.2017 22:10 5,0 C 3,3 C 2,2 C 89 % 4 lf 1027,9 hPa 0,0 l/m 0 min 0 min 0 W/m 0,0 km/h (0 Bft) 93,62 %
30.10.2017 22:12 5,0 C 3,3 C 2,2 C 89 % 4 lf 1027,9 hPa 0,0 l/m 0 min 0 min 0 W/m 0,0 km/h (0 Bft) 93,62 %
30.10.2017 22:14 4,9 C 3,3 C 2,2 C 89 % 5 lf 1027,8 hPa 0,0 l/m 0 min 0 min 0 W/m 0,0 km/h (0 Bft) 93,48 %
30.10.2017 22:16 4,9 C 3,3 C 2,2 C 89 % 5 lf 1027,8 hPa 0,0 l/m 0 min 0 min 0 W/m 0,0 km/h (0 Bft) 95,74 %
30.10.2017 22:18 4,9 C 3,3 C 2,2 C 89 % 6 lf 1027,9 hPa 0,0 l/m 0 min 0 min 0 W/m 0,0 km/h (0 Bft) 95,74 %
30.10.2017 22:20 4,9 C 3,3 C 2,2 C 89 % 7 lf 1027,8 hPa 0,0 l/m 0 min 0 min 0 W/m 6,3 km/h (2 Bft) 95,74 %
30.10.2017 22:22 4,8 C 3,3 C 2,2 C 89 % 7 lf 1027,9 hPa 0,0 l/m 0 min 0 min 0 W/m 4,2 km/h (1 Bft) 97,87 %
30.10.2017 22:24 4,8 C 3,3 C 2,2 C 89 % 7 lf 1027,9 hPa 0,0 l/m 0 min 0 min 0 W/m 4,2 km/h (1 Bft) 97,87 %
30.10.2017 22:26 4,8 C 3,3 C 2,2 C 89 % 8 lf 1027,9 hPa 0,0 l/m 0 min 0 min 0 W/m 4,2 km/h (1 Bft) 95,65 %
30.10.2017 22:28 4,7 C 3,3 C 2,2 C 89 % 9 lf 1027,9 hPa 0,0 l/m 0 min 0 min 0 W/m 4,2 km/h (1 Bft) 97,87 %
30.10.2017 22:30 4,7 C 3,3 C 2,2 C 89 % 9 lf 1027,9 hPa 0,0 l/m 0 min 0 min 0 W/m 4,2 km/h (1 Bft) 93,62 %
30.10.2017 22:32 4,7 C 3,3 C 2,2 C 89 % 9 lf 1027,8 hPa 0,0 l/m 0 min 0 min 0 W/m 4,2 km/h (1 Bft) 97,87 %
30.10.2017 22:34 4,7 C 3,3 C 2,2 C 89 % 10 lf 1027,9 hPa 0,0 l/m 0 min 0 min 0 W/m 4,2 km/h (1 Bft) 97,87 %
30.10.2017 22:36 4,6 C 3,3 C 2,2 C 89 % 10 lf 1027,9 hPa 0,0 l/m 0 min 0 min 0 W/m 6,3 km/h (2 Bft) 95,65 %
30.10.2017 22:38 4,6 C 3,3 C 2,2 C 89 % 10 lf 1027,8 hPa 0,0 l/m 0 min 0 min 0 W/m 6,3 km/h (2 Bft) 95,74 %
30.10.2017 22:40 4,6 C 3,3 C 2,2 C 89 % 11 lf 1027,8 hPa 0,0 l/m 0 min 0 min 0 W/m 6,3 km/h (2 Bft) 95,74 %
30.10.2017 22:42 4,6 C 3,3 C 2,2 C 89 % 11 lf 1027,8 hPa 0,0 l/m 0 min 0 min 0 W/m 6,3 km/h (2 Bft) 95,74 %
30.10.2017 22:44 4,5 C 3,3 C 2,2 C 89 % 11 lf 1027,8 hPa 0,0 l/m 0 min 0 min 0 W/m 6,3 km/h (2 Bft) 95,74 %
30.10.2017 22:46 4,5 C 3,3 C 2,2 C 89 % 11 lf 1027,8 hPa 0,0 l/m 0 min 0 min 0 W/m 6,3 km/h (2 Bft) 97,87 %
30.10.2017 22:48 4,4 C 3,3 C 2,8 C 89 % 11 lf 1027,8 hPa 0,0 l/m 0 min 0 min 0 W/m 6,3 km/h (2 Bft) 97,83 %
30.10.2017 22:50 4,4 C 3,9 C 2,8 C 89 % 11 lf 1027,8 hPa 0,0 l/m 0 min 0 min 0 W/m 4,2 km/h (1 Bft) 95,74 %
30.10.2017 22:52 4,4 C 3,9 C 2,8 C 89 % 10 lf 1027,7 hPa 0,0 l/m 0 min 0 min 0 W/m 4,2 km/h (1 Bft) 95,74 %
30.10.2017 22:54 4,4 C 3,9 C 3,3 C 89 % 10 lf 1027,7 hPa 0,0 l/m 0 min 0 min 0 W/m 4,2 km/h (1 Bft) 97,87 %
30.10.2017 22:56 4,4 C 3,9 C 3,3 C 89 % 10 lf 1027,7 hPa 0,0 l/m 0 min 0 min 0 W/m 4,2 km/h (1 Bft) 95,74 %
30.10.2017 22:58 4,4 C 3,9 C 3,3 C 90 % 10 lf 1027,7 hPa 0,0 l/m 0 min 0 min 0 W/m 4,2 km/h (1 Bft) 95,74 %
30.10.2017 23:00 4,4 C 3,9 C 3,3 C 90 % 9 lf 1027,7 hPa 0,0 l/m 0 min 0 min 0 W/m 4,2 km/h (1 Bft) 95,65 %
30.10.2017 23:02 4,4 C 3,9 C 3,3 C 90 % 9 lf 1027,7 hPa 0,0 l/m 0 min 0 min 0 W/m 4,2 km/h (1 Bft) 95,74 %
30.10.2017 23:04 4,4 C 3,9 C 3,3 C 90 % 8 lf 1027,7 hPa 0,0 l/m 0 min 0 min 0 W/m 6,3 km/h (2 Bft) 95,74 %
30.10.2017 23:06 4,4 C 4,4 C 3,3 C 90 % 7 lf 1027,7 hPa 0,0 l/m 0 min 0 min 0 W/m 4,2 km/h (1 Bft) 97,87 %
30.10.2017 23:08 4,4 C 4,4 C 3,3 C 90 % 6 lf 1027,7 hPa 0,0 l/m 0 min 0 min 0 W/m 4,2 km/h (1 Bft) 95,74 %
30.10.2017 23:10 4,4 C 4,4 C 3,3 C 90 % 6 lf 1027,6 hPa 0,0 l/m 0 min 0 min 0 W/m 4,2 km/h (1 Bft) 95,74 %
30.10.2017 23:12 4,4 C 4,4 C 3,3 C 90 % 5 lf 1027,6 hPa 0,0 l/m 0 min 0 min 0 W/m 6,3 km/h (2 Bft) 97,83 %
30.10.2017 23:14 4,4 C 4,4 C 3,9 C 90 % 4 lf 1027,6 hPa 0,0 l/m 0 min 0 min 0 W/m 6,3 km/h (2 Bft) 97,87 %
30.10.2017 23:16 4,4 C 4,4 C 3,9 C 90 % 4 lf 1027,7 hPa 0,0 l/m 0 min 0 min 0 W/m 8,4 km/h (2 Bft) 97,87 %
30.10.2017 23:18 4,4 C 4,4 C 3,9 C 91 % 3 lf 1027,7 hPa 0,0 l/m 0 min 0 min 0 W/m 8,4 km/h (2 Bft) 95,74 %
30.10.2017 23:20 4,5 C 4,4 C 3,9 C 91 % 3 lf 1027,6 hPa 0,0 l/m 0 min 0 min 0 W/m 8,4 km/h (2 Bft) 91,49 %
30.10.2017 23:22 4,5 C 5,0 C 3,9 C 91 % 2 lf 1027,6 hPa 0,0 l/m 0 min 0 min 0 W/m 6,3 km/h (2 Bft) 100,00 %
30.10.2017 23:24 4,5 C 5,0 C 3,9 C 91 % 2 lf 1027,6 hPa 0,0 l/m 0 min 0 min 0 W/m 4,2 km/h (1 Bft) 97,87 %
30.10.2017 23:26 4,6 C 5,0 C 3,9 C 91 % 2 lf 1027,6 hPa 0,0 l/m 0 min 0 min 0 W/m 6,3 km/h (2 Bft) 95,65 %
30.10.2017 23:28 4,6 C 5,0 C 3,9 C 91 % 1 lf 1027,6 hPa 0,0 l/m 0 min 0 min 0 W/m 4,2 km/h (1 Bft) 95,74 %
30.10.2017 23:30 4,6 C 5,0 C 3,9 C 92 % 1 lf 1027,6 hPa 0,0 l/m 0 min 0 min 0 W/m 4,2 km/h (1 Bft) 97,87 %
30.10.2017 23:32 4,7 C 5,0 C 3,9 C 92 % 1 lf 1027,6 hPa 0,0 l/m 0 min 0 min 0 W/m 4,2 km/h (1 Bft) 97,87 %
30.10.2017 23:34 4,7 C 5,0 C 3,9 C 92 % 1 lf 1027,6 hPa 0,0 l/m 0 min 0 min 0 W/m 4,2 km/h (1 Bft) 100,00 %
30.10.2017 23:36 4,7 C 5,0 C 3,9 C 92 % 1 lf 1027,6 hPa 0,0 l/m 0 min 0 min 0 W/m 6,3 km/h (2 Bft) 97,87 %
30.10.2017 23:38 4,7 C 5,0 C 3,9 C 92 % 1 lf 1027,6 hPa 0,0 l/m 0 min 0 min 0 W/m 6,3 km/h (2 Bft) 95,65 %
30.10.2017 23:40 4,8 C 5,0 C 3,9 C 92 % 1 lf 1027,6 hPa 0,0 l/m 0 min 0 min 0 W/m 6,3 km/h (2 Bft) 100,00 %
30.10.2017 23:42 4,8 C 5,0 C 3,9 C 92 % 1 lf 1027,6 hPa 0,0 l/m 0 min 0 min 0 W/m 6,3 km/h (2 Bft) 97,87 %
30.10.2017 23:44 4,8 C 5,0 C 4,4 C 92 % 1 lf 1027,6 hPa 0,0 l/m 0 min 0 min 0 W/m 4,2 km/h (1 Bft) 95,74 %
30.10.2017 23:46 4,8 C 5,0 C 4,4 C 92 % 1 lf 1027,7 hPa 0,0 l/m 0 min 0 min 0 W/m 2,1 km/h (1 Bft) 97,87 %
30.10.2017 23:48 4,9 C 5,0 C 4,4 C 92 % 1 lf 1027,7 hPa 0,0 l/m 0 min 0 min 0 W/m 4,2 km/h (1 Bft) 97,87 %
30.10.2017 23:50 4,9 C 5,0 C 4,4 C 92 % 1 lf 1027,7 hPa 0,0 l/m 0 min 0 min 0 W/m 6,3 km/h (2 Bft) 95,65 %
30.10.2017 23:52 4,9 C 5,6 C 4,4 C 92 % 1 lf 1027,7 hPa 0,0 l/m 0 min 0 min 0 W/m 6,3 km/h (2 Bft) 95,74 %
30.10.2017 23:54 5,0 C 5,6 C 4,4 C 92 % 1 lf 1027,7 hPa 0,0 l/m 0 min 0 min 0 W/m 4,2 km/h (1 Bft) 93,62 %
30.10.2017 23:56 5,0 C 5,0 C 4,4 C 93 % 1 lf 1027,6 hPa 0,0 l/m 0 min 0 min 0 W/m 2,1 km/h (1 Bft) 95,74 %
30.10.2017 23:58 5,0 C 5,6 C 4,4 C 93 % 1 lf 1027,6 hPa 0,0 l/m 0 min 0 min 0 W/m 2,1 km/h (1 Bft) 95,74 %
_ Min-Zeit 22:48 06:44 06:34 13:22 08:50 00:00 - - - - 17:52 19:06
Minimum _ 4,4 C 3,3 C 2,2 C 69 % 0 lf 1021,1 hPa - - - - 0,0 km/h (0 Bft) 84,21 %
_ Max-Zeit 13:18 11:54 13:10 08:40 22:40 21:48 00:00 12:10 00:00 12:54 13:20 00:38
Maximum _ 11,6 C 22,2 C 12,2 C 95 % 11 lf 1027,9 hPa 0,0 l/m 4 min 0 min 554 W/m 27,2 km/h
W-NW (4 Bft)
100,00 %
Durchschnitt _ 7,2 C 8,5 C 5,4 C 85 % 1 lf 1025,2 hPa #0,0 l/m #6:14 h #0 min. 195 W/m 10,3 km/h (2 Bft) 96,74 %
© 2017 W. Hausmann